GFSFLT1_prec_cloud_003.txt.gz
Cloud_Cover
20 5 12 42 34 6 8 23 68 9 5 4 15 5 2 5 5 12 3 0 0 0 5 99 100 92 40 98 100 100 100 100
8 26 28 24 49 5 65 97 88 98 34 84 88 94 58 18 9 7 5 3 0 0 0 2 97 100 100 49 98 100 100 100
26 65 50 5 31 73 80 40 33 7 14 99 100 100 100 100 96 53 52 21 3 4 0 0 2 94 100 100 91 100 100 100
17 17 5 30 7 5 7 40 25 95 97 93 88 100 100 100 100 100 94 91 74 6 5 5 5 5 86 100 100 47 100 100
5 5 5 5 5 5 5 5 11 15 60 68 34 37 100 100 100 100 100 99 100 81 100 95 77 13 7 46 99 35 15 43
44 76 52 52 72 68 65 56 88 32 59 95 97 100 100 100 100 100 100 100 100 100 100 100 94 100 99 84 85 98 88 67
100 100 90 100 100 81 99 100 100 71 88 82 100 100 100 100 100 100 100 100 100 100 100 100 100 100 100 76 89 93 87 100
100 93 100 100 100 100 100 100 100 100 100 100 100 100 100 100 100 100 100 100 100 100 100 100 100 100 92 100 86 30 83 100
100 100 100 100 100 100 100 100 100 54 100 100 97 100 99 100 100 100 100 100 100 100 100 100 100 100 100 87 68 75 16 100
100 100 100 100 56 100 100 69 96 55 100 100 90 87 100 100 73 100 100 99 97 84 92 100 100 100 100 100 55 5 91 44
98 100 100 100 100 90 90 95 100 100 100 100 100 100 100 100 100 100 100 100 100 100 97 100 100 100 100 100 80 17 14 71
57 88 100 100 99 100 100 96 100 100 100 100 100 100 100 100 100 100 100 100 92 74 82 97 93 90 93 94 100 100 80 5
87 94 73 100 100 100 100 100 100 100 100 100 100 100 100 100 100 100 100 96 92 99 83 72 97 81 8 6 6 5 5 5
76 89 100 100 100 100 100 100 100 100 100 100 100 100 100 100 100 100 100 100 74 65 45 21 5 4 4 5 5 5 13 5
73 100 100 100 100 100 100 100 100 100 100 100 100 100 100 100 100 100 100 100 59 22 5 5 5 3 5 5 5 38 71 100
98 100 100 100 100 100 100 100 100 100 100 99 96 100 100 100 100 100 100 100 89 23 5 5 1 5 5 5 12 82 97 100
100 99 100 100 100 100 90 99 100 100 100 100 100 100 100 100 100 100 100 49 5 5 5 4 5 5 5 5 5 96 100 100
85 99 100 100 100 100 97 100 100 100 100 100 100 100 100 100 100 100 100 29 5 4 5 5 5 63 36 72 5 92 100 100
97 96 100 100 100 100 100 100 100 100 100 100 100 100 100 100 100 100 32 5 1 5 5 21 80 97 72 11 78 100 100 100

GFSFLT1_prec_cloud_006.txt.gz
Cloud_Cover
0 5 5 5 5 6 14 26 31 39 46 6 5 6 21 6 4 2 100 100 100 100 100 100 94 9 5 1 0 3 59 7
5 5 5 5 5 5 5 12 36 61 33 38 5 5 5 12 26 5 5 20 99 100 100 100 100 72 45 5 0 0 5 49
34 30 100 97 86 100 61 44 87 100 100 100 100 100 100 63 26 10 58 5 38 5 70 100 100 25 70 5 5 3 4 3
100 100 82 100 100 100 100 100 100 98 100 100 63 75 100 100 100 87 5 5 5 8 39 8 14 8 38 99 100 50 5 5
12 100 100 100 100 100 100 100 100 100 50 100 100 100 99 100 100 100 37 37 50 38 30 52 95 56 93 100 100 100 100 25
100 100 100 100 100 100 100 100 100 100 91 84 100 100 100 100 100 100 100 100 100 77 26 87 98 98 21 53 74 96 100 100
100 100 100 100 100 91 88 24 100 100 76 100 100 100 100 100 100 100 100 100 100 100 100 96 98 100 98 64 66 100 100 92
100 100 100 100 97 85 18 17 100 100 100 100 100 100 100 100 100 100 100 100 100 100 100 100 100 98 100 100 100 100 100 100
100 70 100 100 100 97 9 5 7 46 100 100 100 100 100 100 100 100 100 100 100 100 100 100 100 100 100 100 100 100 99 100
9 84 83 78 48 56 60 84 53 100 100 100 100 100 100 100 100 100 100 100 100 100 100 100 100 100 100 100 100 100 100 100
93 43 31 24 6 5 5 33 100 100 100 100 100 100 100 100 100 100 100 100 100 100 100 100 100 100 100 100 90 59 67 100
80 96 95 5 5 5 55 80 100 100 100 100 100 100 100 100 100 99 100 100 100 100 100 100 100 100 100 90 79 42 24 50
95 45 16 100 7 85 91 35 100 100 100 100 100 100 100 100 100 100 100 100 100 100 100 100 100 100 100 47 29 38 5 5
100 70 28 100 83 94 86 86 96 100 100 99 100 100 100 100 87 95 100 100 100 100 100 100 100 100 100 92 15 5 5 3
100 66 42 10 72 87 100 94 94 100 100 100 98 100 100 100 89 89 100 100 100 100 100 100 100 100 54 10 3 5 6 5
100 85 20 75 86 97 100 94 99 87 91 86 86 93 42 98 100 98 100 100 100 100 100 100 100 16 5 4 5 5 5 5
64 48 100 97 100 100 100 77 88 96 78 85 98 100 100 100 100 100 100 100 100 100 100 59 5 2 2 5 5 5 5 5
92 79 95 77 76 84 100 100 94 100 100 100 100 100 100 100 100 100 100 100 100 100 41 3 0 2 5 5 6 11 53 6
18 73 77 100 100 100 100 90 100 100 100 100 100 100 100 100 100 100 100 100 100 12 2 0 3 5 5 5 5 19 14 21

GFSFLT1_prec_cloud_012.txt.gz
Cloud_Cover
100 100 100 92 41 14 5 64 14 8 22 32 5 20 18 5 21 50 76 94 31 5 97 100 100 100 99 47 8 5 5 5
100 100 100 60 5 5 5 5 5 5 5 5 5 5 5 5 5 5 5 5 5 5 5 66 88 96 19 18 5 32 11 34
0 2 72 16 5 6 5 5 5 6 52 8 42 69 27 8 5 5 29 18 5 49 14 5 5 72 83 21 5 38 16 5
2 0 0 2 4 16 14 15 5 12 55 29 8 16 18 9 5 5 16 32 14 32 76 66 87 98 95 58 81 100 100 100
43 64 5 5 9 55 19 76 83 58 11 6 5 5 5 5 5 5 5 5 5 5 43 99 100 100 100 93 81 100 100 100
83 12 5 5 5 5 7 68 85 100 100 100 100 76 84 28 32 5 5 5 5 5 10 79 89 86 90 100 100 100 100 74
6 5 22 19 8 85 83 100 100 100 100 100 100 100 100 81 10 5 5 5 22 65 99 100 99 74 76 100 100 100 100 100
39 7 6 68 100 93 97 100 100 100 84 90 89 45 18 6 5 5 8 76 91 100 100 100 100 100 100 100 99 76 100 100
42 9 5 5 38 31 82 100 74 81 98 100 84 6 5 5 5 9 5 15 93 75 100 100 100 100 100 100 98 100 100 100
84 96 7 96 58 89 100 75 21 85 25 5 5 56 100 100 98 69 86 94 100 100 100 100 100 100 100 100 100 100 100 100
54 69 46 8 27 39 34 44 26 45 5 5 6 16 80 72 15 41 48 97 100 100 100 100 100 100 100 100 100 100 100 100
40 93 84 53 37 39 98 71 44 54 90 100 98 25 6 5 5 40 31 92 100 100 100 100 100 100 100 100 100 100 100 100
28 5 12 98 100 99 58 62 100 60 61 6 1 5 5 5 5 82 93 89 95 100 100 100 100 100 100 100 100 100 100 100
82 100 100 100 85 90 72 16 9 5 5 5 5 5 16 7 66 94 100 100 100 100 100 100 100 100 100 100 100 100 100 100
100 31 49 99 36 5 4 6 4 6 5 8 18 5 88 49 71 86 96 92 100 100 100 100 100 100 100 100 100 100 100 100
33 68 67 96 11 5 5 4 41 92 5 24 87 88 99 100 100 90 97 98 100 98 98 78 40 48 98 100 100 99 37 5
100 99 44 8 72 36 29 6 11 5 51 100 100 100 100 100 100 100 100 100 100 100 100 100 100 100 100 57 7 5 5 5
68 8 5 5 5 5 5 5 13 9 100 100 100 100 100 100 100 100 100 100 100 100 100 100 100 100 94 5 4 3 5 5
5 30 32 25 21 8 5 100 48 5 32 21 10 5 85 100 100 100 100 100 100 100 100 100 98 39 3 5 5 5 5 5

GFSFLT1_prec_cloud_015.txt.gz
Cloud_Cover
5 9 5 5 4 0 0 0 0 0 1 5 5 5 5 55 81 72 15 5 7 5 5 5 5 17 49 85 62 8 3 5
5 5 0 0 0 0 0 0 5 5 5 5 5 5 72 71 30 78 37 26 5 5 5 5 5 5 5 5 5 4 5 5
0 1 1 3 0 4 0 0 2 5 5 5 4 5 5 5 4 8 46 58 58 50 14 5 5 5 5 5 5 5 5 5
2 5 4 1 0 2 3 5 3 4 5 5 20 5 0 0 4 2 3 2 5 5 5 5 5 6 5 5 5 51 82 91
15 5 5 5 5 5 61 95 100 100 100 100 100 100 100 100 100 100 92 53 76 61 5 41 91 90 83 69 7 5 18 63
84 6 6 30 82 100 100 98 100 100 100 100 98 99 100 100 99 92 16 18 5 5 6 80 95 100 100 96 82 45 80 96
20 18 100 100 100 100 82 25 23 6 28 40 45 5 24 7 5 5 16 8 4 2 5 5 67 100 90 100 88 100 98 100
76 66 39 86 86 36 5 5 5 5 5 6 44 26 10 12 0 4 4 0 0 0 2 5 39 100 100 75 91 100 100 100
62 5 42 8 5 5 5 5 16 16 12 12 20 14 13 5 5 0 0 0 0 0 0 3 84 100 98 100 100 100 100 100
5 5 5 5 5 5 4 5 5 5 1 2 27 60 25 4 0 0 0 0 0 1 5 5 71 84 100 100 100 100 100 100
8 42 5 5 5 5 5 5 6 25 12 20 5 5 0 0 0 0 0 4 5 5 25 100 100 100 100 100 100 100 100 100
5 5 5 5 11 51 51 5 9 70 73 5 5 2 4 0 2 4 5 5 5 86 92 96 100 100 100 100 100 100 100 100
5 5 40 84 56 98 87 97 100 100 55 5 10 42 3 0 5 5 69 94 98 100 96 77 100 100 100 100 100 100 100 100
67 96 100 97 98 99 97 98 100 83 8 5 5 4 5 24 61 89 100 100 100 100 96 80 89 99 99 100 90 71 97 97
100 100 67 11 21 33 54 100 76 78 96 75 89 98 86 100 100 100 89 100 100 100 100 100 100 100 100 100 100 100 97 99
7 31 60 79 6 10 90 73 12 48 100 100 100 100 100 100 98 100 100 100 100 100 100 100 100 100 100 74 47 47 96 100
84 100 78 38 9 82 54 80 99 8 73 79 100 100 100 100 100 100 100 100 100 100 100 100 100 100 100 100 67 96 84 8
95 100 100 100 100 100 100 100 98 7 65 19 13 81 61 100 100 100 100 100 100 100 100 100 100 100 100 100 92 5 5 5
100 94 54 100 100 60 97 100 76 68 80 94 100 98 100 100 100 100 100 100 100 100 100 100 100 100 100 82 9 5 5 5

GFSFLT1_prec_cloud_018.txt.gz
Cloud_Cover
0 0 0 0 0 0 0 2 5 5 5 5 5 2 5 5 4 5 5 4 0 4 4 0 3 5 5 5 7 5 5 5
0 0 0 0 0 0 0 3 5 5 5 11 12 5 5 5 2 0 0 0 4 2 0 0 0 1 3 1 0 0 0 0
1 0 0 0 0 2 2 5 58 63 62 72 5 5 5 14 63 45 16 2 3 4 5 5 6 5 5 5 5 5 4 1
1 4 0 0 4 5 5 5 26 82 21 68 83 99 65 6 5 30 98 31 8 2 26 35 46 30 18 5 5 5 5 5
0 2 3 3 3 5 5 6 80 91 87 10 5 5 5 5 5 5 5 4 0 0 0 0 0 4 5 18 91 95 90 5
3 6 9 5 6 31 89 100 81 5 5 36 44 5 5 4 0 0 0 0 0 0 0 0 0 4 4 49 99 100 100 100
11 79 76 31 33 88 17 7 5 36 57 38 66 5 5 0 2 0 0 0 0 0 0 0 0 0 0 5 50 100 100 100
30 5 96 93 70 90 86 88 89 100 100 100 100 93 5 5 5 5 5 2 0 0 0 0 0 0 0 0 5 91 87 100
5 9 10 73 100 100 94 96 100 100 93 77 53 5 16 55 69 26 5 5 5 28 0 0 1 2 5 35 94 100 100 100
5 5 31 100 100 100 100 100 100 100 43 12 33 86 100 100 100 80 49 5 19 14 12 5 5 24 60 100 100 100 100 100
20 19 9 5 33 82 100 100 54 5 5 10 21 75 92 100 100 71 96 100 99 100 24 27 37 88 98 100 100 100 100 100
47 17 5 5 5 37 5 37 33 49 64 13 50 14 5 5 5 5 7 51 80 17 77 100 75 100 74 67 100 100 100 100
19 5 5 15 5 5 5 10 6 79 65 5 75 100 82 5 65 100 100 96 84 100 99 100 100 100 100 100 100 100 100 100
20 73 88 36 5 6 54 56 70 17 53 97 79 24 36 73 59 99 99 75 89 100 100 100 100 100 100 100 100 100 100 100
5 22 19 71 100 99 100 99 66 58 92 87 82 60 96 100 100 100 100 100 100 100 100 100 100 100 100 100 100 100 100 100
100 79 99 97 97 100 100 100 28 6 64 98 99 98 96 100 100 84 100 100 100 98 100 100 100 100 100 100 96 60 29 45
51 100 94 55 82 70 77 54 48 5 66 74 96 50 93 5 62 100 100 100 100 100 100 100 100 100 100 100 100 100 100 100
98 44 41 95 100 100 97 100 99 6 73 59 100 90 100 100 95 94 63 88 100 100 100 100 100 100 100 100 100 100 77 100
49 75 54 55 63 99 100 97 17 8 55 96 100 100 100 99 97 99 100 100 100 95 100 100 100 100 100 100 100 100 100 100

GFSFLT1_prec_cloud_024.txt.gz
Cloud_Cover
0 0 0 0 0 0 0 0 0 2 4 5 5 5 5 10 6 5 47 5 7 5 3 0 0 4 6 16 53 22 13 5
0 0 0 0 0 0 0 4 0 5 5 5 5 5 5 5 5 5 2 0 5 3 3 5 5 14 70 34 11 17 5 5
0 0 0 0 0 0 0 3 5 5 38 11 5 5 5 5 5 6 7 6 24 8 5 15 39 9 23 32 5 2 0 0
0 0 4 0 0 2 5 5 5 70 33 5 5 8 8 14 62 57 8 57 72 9 5 5 4 5 5 5 5 5 1 2
2 0 0 3 5 5 6 9 5 5 5 5 63 86 73 11 8 11 98 96 42 45 46 8 5 4 3 6 23 62 88 91
5 5 5 9 6 46 69 98 76 100 100 60 38 76 100 96 84 41 77 50 33 83 71 5 7 5 5 5 5 5 5 12
5 5 60 54 32 50 100 100 99 100 100 94 68 24 5 5 5 5 15 13 5 26 45 40 78 17 5 13 31 60 71 100
5 5 5 5 55 41 65 78 60 20 46 28 5 5 9 45 20 5 14 92 100 100 100 77 96 79 95 96 100 86 98 100
5 5 5 22 13 5 13 8 5 48 53 7 13 9 10 12 65 98 100 100 100 97 74 64 92 99 100 100 100 100 100 100
5 9 58 8 9 72 5 5 5 8 19 6 5 29 97 99 100 100 100 46 65 46 100 100 100 100 100 99 100 100 98 100
5 5 11 36 15 5 5 5 27 35 10 9 42 56 33 96 100 98 59 73 73 100 100 100 100 100 100 100 100 100 100 100
20 72 33 64 82 46 5 26 41 60 94 85 23 62 83 100 98 91 92 99 100 100 100 100 100 100 96 100 100 100 100 100
57 85 92 80 8 23 64 68 44 33 36 65 83 100 100 73 99 58 46 100 100 98 100 100 100 90 100 100 100 100 100 100
72 37 13 76 73 56 50 44 100 100 100 100 100 100 90 100 99 98 97 90 92 80 81 100 88 62 96 94 98 94 97 100
52 73 92 97 97 97 96 97 100 98 100 100 100 100 100 100 100 100 100 100 100 100 96 83 74 48 75 99 100 100 98 92
68 93 100 11 73 100 100 100 100 100 100 100 100 100 94 100 100 100 100 100 100 90 54 7 5 5 5 19 56 81 95 97
76 55 55 100 100 100 99 62 99 100 100 31 100 54 56 66 98 93 44 5 5 5 5 5 5 5 5 5 5 25 75 53
100 100 100 100 81 100 100 100 100 91 78 82 100 94 83 70 29 70 24 37 5 5 5 5 5 32 5 5 5 5 5 62
100 100 100 100 100 100 100 67 80 99 41 98 100 99 91 95 14 86 47 5 5 5 5 9 31 66 5 5 5 9 95 100

GFSFLT1_prec_cloud_027.txt.gz
Cloud_Cover
10 2 0 0 0 0 0 0 10 10 5 5 5 5 5 5 5 5 5 5 5 5 5 5 5 5 5 26 79 100 96 100
0 0 0 0 0 0 0 0 3 5 5 5 38 77 63 5 5 5 5 5 5 5 5 5 5 5 5 5 10 24 52 93
0 0 0 0 0 0 0 5 5 5 8 96 100 100 81 71 35 15 68 7 62 85 95 99 48 5 5 47 34 19 5 5
0 0 0 0 0 0 1 5 5 85 100 79 51 99 94 90 92 82 89 100 78 13 19 5 5 5 17 6 14 71 90 100
0 0 4 5 2 4 5 5 5 5 5 5 75 88 46 9 78 93 72 5 21 5 5 5 5 5 5 29 93 67 13 5
0 1 5 5 5 5 5 5 5 5 5 19 40 29 55 12 53 53 69 56 18 68 100 99 65 5 5 16 55 50 7 5
3 5 2 5 5 5 16 42 25 72 94 88 100 91 72 71 31 35 48 82 96 49 5 5 19 95 100 87 71 97 53 71
2 4 5 5 32 96 100 100 100 81 96 96 100 60 54 45 72 100 100 36 6 11 51 89 64 98 93 100 100 100 99 93
0 5 25 52 81 100 100 84 9 5 22 94 49 98 97 77 21 23 76 59 20 66 99 100 100 100 100 100 100 100 94 86
5 21 100 84 56 50 43 12 13 59 7 31 38 98 100 100 98 75 41 67 91 100 100 100 100 100 98 100 100 100 100 96
47 97 47 39 22 5 12 19 42 99 100 81 98 76 28 71 87 6 6 98 100 100 97 99 100 100 100 91 86 100 100 100
96 52 48 90 100 89 100 59 24 21 45 16 10 43 92 30 8 90 100 100 100 91 63 57 16 80 100 100 93 75 76 98
61 100 100 100 100 66 29 8 8 26 42 89 100 99 20 84 100 100 88 54 70 80 97 99 100 81 92 91 74 99 100 99
100 100 100 100 98 88 49 91 100 100 100 100 100 100 100 88 42 44 77 81 82 99 100 93 73 99 92 98 58 94 61 14
100 100 100 54 72 100 100 100 100 100 100 96 40 11 46 97 62 11 100 95 97 100 100 99 100 100 100 100 93 23 5 5
72 37 94 100 100 92 100 99 94 77 58 14 35 62 100 53 55 21 57 59 92 96 100 100 82 63 86 10 0 5 5 5
95 100 97 100 100 98 100 99 41 97 94 5 40 83 100 92 73 84 100 99 100 98 5 5 80 92 96 5 5 2 5 5
100 99 100 100 100 100 100 100 90 6 5 49 71 100 97 100 100 100 100 95 8 5 5 73 99 100 91 5 5 5 5 62
83 96 100 100 100 100 100 98 16 5 11 72 100 99 100 89 100 100 90 5 5 5 49 66 98 100 87 5 5 31 95 99

GFSFLT1_prec_cloud_030.txt.gz
Cloud_Cover
95 28 6 1 1 0 0 0 61 48 1 1 2 5 5 5 5 5 5 5 5 20 5 56 61 5 26 5 5 5 5 5
1 1 0 0 0 0 0 0 0 0 0 5 5 5 50 62 34 63 9 86 11 5 11 55 28 4 0 0 3 5 5 5
0 0 0 0 0 0 0 5 5 5 14 52 82 95 81 50 90 47 82 5 5 5 5 2 0 3 2 2 2 5 5 5
0 0 0 0 0 3 5 5 5 14 5 5 3 5 7 72 80 100 83 58 38 5 27 5 5 5 7 12 3 3 4 5
0 0 0 0 3 5 5 1 5 5 5 4 5 5 5 12 61 48 5 23 96 96 95 39 5 5 5 5 5 5 1 3
0 0 0 0 0 0 3 5 6 5 5 8 48 100 87 32 69 100 100 100 100 100 92 8 34 14 7 10 14 14 8 41
0 0 0 0 1 5 5 5 5 6 5 29 54 100 100 100 100 100 100 100 90 84 36 38 38 100 100 76 22 33 99 92
0 0 0 1 9 8 7 8 6 21 78 100 100 100 100 100 100 96 83 70 94 100 100 100 100 100 76 61 80 100 83 98
0 2 5 5 5 5 18 25 99 100 100 100 100 100 83 58 55 97 100 100 100 100 100 94 16 7 100 81 100 100 100 100
4 34 57 57 10 5 11 100 100 56 52 99 97 100 100 100 100 100 100 60 5 5 5 5 5 5 36 99 96 92 92 97
55 19 5 5 5 5 87 100 100 100 100 100 100 100 100 100 91 46 5 5 5 5 7 6 21 7 5 5 22 78 48 6
6 12 23 44 86 100 100 100 100 100 100 86 32 6 9 9 16 38 5 5 1 12 91 22 48 100 86 75 62 23 91 34
5 30 90 100 100 93 100 76 58 7 17 5 57 25 43 57 11 68 48 24 97 100 97 100 99 100 100 98 11 86 30 66
74 80 86 67 84 86 39 5 41 84 72 98 67 27 100 100 81 6 3 5 65 59 79 84 96 65 87 76 17 98 79 6
36 19 27 49 98 100 7 44 94 96 92 93 100 48 59 9 5 5 5 5 5 14 57 80 78 5 5 5 29 5 5 3
31 49 78 87 97 99 88 96 93 67 94 70 41 5 5 3 21 23 44 5 23 60 46 31 5 5 5 75 6 5 5 0
5 5 5 33 99 86 91 100 100 64 5 66 54 100 59 5 21 41 9 78 75 100 6 5 45 100 55 5 1 5 4 5
58 9 43 98 100 100 89 8 35 6 5 62 96 55 49 19 5 58 92 75 100 9 5 6 64 39 5 5 5 5 5 5
51 63 46 100 94 55 61 100 60 5 4 19 18 26 5 3 39 100 99 85 23 5 5 84 59 5 2 5 5 5 5 5

GFSFLT1_prec_cloud_036.txt.gz
Cloud_Cover
0 0 2 1 5 5 28 81 100 100 100 81 3 0 0 4 31 23 50 87 100 40 17 21 27 18 5 5 1 3 5 5
0 0 0 5 4 5 50 100 56 66 29 0 0 5 2 5 5 18 58 99 100 100 99 68 23 5 5 6 5 5 5 5
0 0 9 3 3 24 44 0 0 4 5 5 5 5 18 62 89 85 77 84 98 99 43 14 63 84 3 1 0 4 5 5
4 4 0 0 0 1 0 0 0 1 5 5 22 98 17 31 17 5 5 5 4 3 4 0 1 0 2 4 5 5 4 5
61 44 65 3 0 0 0 13 60 6 5 5 6 5 82 52 42 31 5 5 4 0 0 0 0 3 5 29 77 24 57 98
98 100 99 0 1 3 3 0 0 0 0 4 8 15 94 100 100 100 100 100 94 100 100 100 100 99 27 6 6 5 5 5
42 58 5 5 5 2 2 0 1 2 5 5 65 100 100 100 100 100 100 92 93 98 95 73 31 59 99 54 5 8 5 6
94 83 99 92 96 32 5 5 5 47 43 64 26 21 88 93 34 16 5 5 12 43 97 100 100 78 11 5 64 99 99 100
100 100 67 6 4 5 30 92 100 100 100 93 57 92 98 59 79 99 100 100 100 100 92 63 10 5 5 7 6 6 5 5
80 78 23 45 67 55 62 78 100 100 100 100 92 34 86 100 100 100 100 92 20 5 2 5 5 11 100 39 5 6 32 5
100 87 100 58 32 23 12 22 46 85 62 61 100 62 62 66 71 47 4 0 1 0 5 5 5 82 99 75 52 90 92 100
91 93 52 100 71 37 44 93 34 21 98 76 25 36 7 5 1 0 0 0 4 0 0 5 5 5 5 10 14 30 67 77
89 99 91 22 5 6 27 5 34 11 5 5 5 5 1 0 0 0 0 1 5 5 0 5 4 3 5 5 5 5 5 5
98 100 96 98 64 34 12 5 5 5 5 2 3 4 5 0 4 1 0 4 5 44 3 9 4 39 5 5 5 5 5 10
84 81 90 86 98 14 40 47 17 5 4 31 5 5 5 5 10 6 47 80 98 100 100 98 74 95 73 18 4 5 5 5
88 97 100 100 100 100 100 34 16 95 98 26 25 5 40 61 7 55 81 100 100 100 100 100 100 96 58 2 5 5 5 11
78 72 100 100 89 11 14 93 100 100 74 64 81 74 27 6 6 91 31 82 100 100 100 100 100 90 0 5 5 6 5 5
47 80 60 35 5 20 100 100 87 99 75 17 1 0 1 3 5 5 30 100 100 100 100 100 95 5 5 5 5 5 5 5
15 17 16 7 89 68 51 18 5 5 5 1 0 0 4 78 46 56 27 100 100 100 100 99 20 94 5 5 5 5 5 5

GFSFLT1_prec_cloud_039.txt.gz
Cloud_Cover
31 5 1 5 5 5 5 95 100 100 100 100 100 100 99 12 5 5 10 92 100 100 88 98 100 100 72 5 5 5 2 2
1 0 1 4 5 54 98 100 100 100 100 100 100 92 13 5 65 99 100 100 100 100 100 62 5 5 5 71 35 5 5 42
2 0 11 12 89 72 71 43 41 43 99 97 37 5 5 5 5 4 1 2 3 0 1 16 43 86 97 55 3 5 5 5
4 5 51 5 5 8 2 58 66 45 4 5 4 5 5 2 1 5 5 3 3 2 1 0 1 2 0 0 0 0 0 0
62 79 50 9 29 5 5 0 0 1 4 1 1 1 8 15 18 35 8 5 1 4 5 4 1 0 0 2 4 4 5 4
100 80 65 100 100 97 64 19 76 92 98 41 90 82 95 100 99 94 96 93 99 100 96 58 8 64 95 100 91 7 6 6
97 58 77 94 82 89 77 99 86 38 6 51 74 98 95 100 100 100 100 100 99 80 98 100 100 86 20 5 5 3 5 10
86 80 100 100 100 100 100 88 45 14 99 100 100 100 100 96 36 43 96 100 99 80 98 39 7 19 5 5 5 5 5 8
100 100 100 100 100 100 97 44 29 100 100 100 100 100 99 99 100 100 100 38 5 5 5 5 2 2 4 6 26 5 5 6
5 5 5 15 37 19 80 99 99 100 100 100 98 100 99 87 21 5 4 5 5 5 2 0 5 5 5 5 5 5 5 16
5 5 5 39 76 98 20 10 33 16 21 62 100 23 5 5 5 1 5 1 0 0 0 0 0 5 5 5 5 5 4 3
85 80 83 98 18 95 47 9 5 26 6 5 17 11 5 5 1 0 0 0 3 5 5 13 5 5 3 5 6 5 5 5
20 65 39 24 54 74 57 36 86 50 9 8 5 5 4 0 5 5 3 5 5 83 99 33 100 100 100 75 89 20 47 5
55 5 56 92 99 100 92 85 57 5 5 5 4 4 5 5 5 5 23 5 88 5 5 12 84 74 93 100 100 100 98 5
77 94 96 100 100 100 97 5 5 5 5 5 5 9 16 5 10 8 5 4 36 6 43 100 98 100 100 100 100 98 5 5
100 99 100 100 100 79 5 5 5 5 5 5 5 5 4 1 0 17 9 23 5 5 93 100 100 100 100 95 30 7 5 5
89 100 99 70 5 5 49 5 5 5 5 5 5 5 0 0 0 0 0 0 40 73 100 100 100 100 85 79 51 5 5 5
10 21 25 37 38 58 5 5 5 5 5 12 5 0 0 0 0 2 2 39 76 44 97 100 100 76 36 21 5 5 5 10
5 25 62 17 10 5 5 5 31 79 19 5 5 3 2 0 5 18 29 84 80 71 26 62 93 100 81 5 5 5 5 5

GFSFLT1_prec_cloud_045.txt.gz
Cloud_Cover
44 99 100 88 75 74 92 80 100 100 100 100 100 100 100 100 100 100 100 100 78 42 15 0 0 0 0 4 5 63 48 13
100 95 64 53 53 30 96 100 100 100 100 100 100 70 100 100 90 58 2 0 0 0 0 0 0 2 5 5 5 5 23 16
99 83 29 14 22 13 39 48 36 86 100 95 12 37 29 11 5 39 4 2 3 4 5 4 0 2 4 2 3 2 5 14
22 4 0 0 2 7 14 12 42 5 77 63 30 5 5 5 5 5 5 7 91 39 1 0 0 0 0 3 11 31 6 5
2 0 4 5 5 6 77 68 5 7 5 38 14 92 5 20 59 27 44 69 5 5 5 5 5 22 60 90 39 5 1 5
0 5 5 5 23 66 69 72 78 98 97 68 82 21 7 5 52 100 99 13 5 5 5 12 74 10 5 5 5 5 5 2
5 5 29 46 15 69 85 87 98 100 92 77 10 7 25 5 5 8 5 5 5 5 5 5 5 4 3 2 0 0 2 5
5 25 100 93 53 63 5 5 5 15 98 100 100 64 7 43 34 5 5 5 5 5 3 2 4 1 2 5 5 5 5 5
27 92 67 4 2 5 5 5 5 69 5 6 6 5 26 5 5 5 5 1 1 5 5 4 5 5 65 5 4 5 5 9
4 0 0 0 5 5 5 7 44 71 56 99 73 38 5 5 5 5 5 5 5 6 5 5 5 6 5 0 4 3 30 19
0 0 2 5 5 15 84 99 85 100 100 65 71 5 5 5 15 27 42 74 33 55 5 4 5 5 5 4 38 5 84 94
5 5 5 9 5 6 29 50 95 100 92 98 6 29 92 72 42 17 14 5 5 5 2 5 4 5 5 5 63 99 100 96
5 5 18 58 48 78 99 88 100 100 46 34 98 49 5 5 43 5 5 0 3 5 0 5 4 82 50 79 100 49 74 100
5 7 100 99 92 97 52 99 99 6 5 48 21 5 5 5 5 5 5 5 5 5 9 34 54 100 100 98 100 100 91 81
5 42 94 100 70 82 100 61 5 5 5 5 5 5 5 5 5 5 5 5 13 25 6 31 86 100 100 100 100 97 98 63
5 6 87 78 98 100 97 80 5 5 5 5 5 5 8 59 98 42 15 32 34 39 91 100 97 28 79 93 98 89 32 5
6 85 100 100 75 93 100 87 5 5 23 32 86 41 93 99 100 100 73 5 21 47 47 22 5 42 13 5 5 5 5 5
76 100 98 100 100 100 88 37 40 96 93 100 100 100 100 100 79 34 5 11 7 6 9 32 9 5 5 5 5 5 5 5
99 98 59 29 29 64 6 48 58 64 100 100 100 100 100 57 5 5 5 52 99 100 86 5 5 5 5 5 5 5 5 5

GFSFLT1_prec_cloud_051.txt.gz
Cloud_Cover
87 100 100 100 100 100 100 100 100 100 100 100 100 99 99 100 100 100 100 96 100 100 93 84 98 100 100 100 100 23 10 7
100 100 100 100 100 89 100 100 100 81 22 29 5 5 5 43 100 100 100 80 82 100 90 99 100 0 3 4 3 5 3 0
100 100 100 99 87 100 99 91 88 72 74 90 30 5 54 11 67 61 45 70 99 71 99 47 5 3 0 4 5 5 10 24
71 78 80 100 94 92 89 44 33 5 5 5 5 63 76 67 92 98 100 100 100 100 41 2 0 0 1 5 5 45 96 90
60 92 98 98 65 7 5 5 5 5 5 5 18 57 93 98 100 70 55 41 42 12 5 2 5 5 5 5 5 5 5 5
54 38 5 5 3 4 5 5 5 5 5 5 9 61 93 95 90 19 5 6 6 4 4 5 5 5 5 5 9 93 86 90
5 4 1 0 0 1 5 5 4 1 5 5 6 33 84 93 63 5 5 5 5 5 5 5 5 6 82 86 64 98 68 67
0 0 0 0 0 5 5 1 2 5 5 5 5 31 84 95 50 55 9 5 2 5 5 5 5 5 6 33 65 96 74 98
0 0 0 0 5 5 0 22 33 15 5 5 5 89 75 29 86 100 63 13 4 5 5 5 5 5 9 60 5 95 70 58
0 0 0 5 4 17 6 50 79 11 13 15 18 97 89 97 97 100 88 5 5 8 5 5 5 5 5 11 54 81 77 94
8 11 17 27 71 78 72 60 25 26 46 77 100 100 94 94 76 36 5 5 5 8 5 5 5 5 5 5 91 99 90 89
11 36 51 53 88 70 8 5 6 32 99 100 73 95 96 17 17 14 5 5 5 5 5 5 5 5 5 76 100 100 99 94
25 40 32 15 0 1 5 5 17 81 96 100 99 98 49 6 66 8 5 5 5 5 5 5 5 5 5 53 97 94 46 99
5 5 5 5 5 5 5 6 57 77 91 22 86 28 19 54 5 5 19 44 8 5 6 20 5 8 21 14 33 62 76 78
5 41 64 5 19 5 5 27 77 59 94 99 16 39 16 62 23 86 90 69 62 41 27 24 5 99 57 78 75 97 100 96
5 29 12 96 48 5 47 80 20 98 53 12 24 60 89 57 79 83 91 99 60 8 49 58 100 73 99 91 76 91 90 99
5 6 99 96 8 39 74 64 98 6 99 98 100 68 73 82 88 100 100 41 6 66 84 98 100 100 61 65 12 20 89 100
5 85 61 5 5 71 70 89 87 98 100 100 82 99 100 100 100 99 63 53 28 69 94 85 56 97 27 96 93 65 34 84
46 94 59 6 41 94 100 91 100 100 100 100 100 100 100 100 100 98 50 22 50 93 86 99 39 100 83 100 50 5 45 100

GFSFLT1_prec_cloud_054.txt.gz
Cloud_Cover
100 100 100 100 98 72 91 100 100 100 100 100 69 59 99 88 12 5 8 5 32 87 58 53 71 74 86 100 79 42 1 0
100 100 88 77 40 100 100 100 100 100 100 100 68 81 4 4 4 5 5 5 5 5 5 5 5 5 0 0 0 0 2 5
87 96 100 100 100 100 100 100 100 100 51 17 5 5 18 5 5 5 5 5 6 6 28 4 5 5 4 0 0 4 3 0
100 100 100 100 100 100 100 69 17 6 100 30 5 4 5 5 5 5 13 17 5 5 5 5 5 5 0 0 0 2 0 4
100 100 100 87 81 86 51 83 38 73 30 5 3 5 5 5 12 99 34 9 6 5 5 5 5 0 0 3 1 0 0 5
90 93 74 64 42 48 50 2 82 5 7 6 5 73 100 98 54 89 84 72 8 5 4 5 5 5 5 5 82 79 7 5
82 56 76 64 7 5 0 11 0 1 0 0 5 5 5 5 13 5 9 31 80 70 11 5 5 5 4 4 10 2 5 5
29 5 1 0 0 0 0 0 0 0 0 1 5 5 5 13 96 97 28 96 100 100 54 54 5 5 5 5 4 81 18 5
0 0 0 0 0 0 0 0 0 0 0 3 5 11 28 77 100 62 88 100 46 8 41 7 5 5 5 5 6 40 9 4
0 0 0 0 0 0 5 23 78 57 0 5 5 40 100 100 86 100 95 100 95 5 5 5 5 5 5 5 5 10 86 8
0 0 0 64 32 16 0 73 100 32 1 6 61 100 98 100 100 86 84 48 5 5 5 5 5 5 5 5 5 5 12 5
0 23 89 43 96 87 3 64 78 6 50 63 78 100 100 95 74 38 60 6 5 5 5 5 5 5 5 5 31 89 22 5
1 42 100 100 77 68 19 5 5 21 86 100 100 100 98 7 86 45 5 5 5 5 5 5 5 5 6 5 5 5 5 5
73 100 93 51 13 29 7 5 46 78 100 100 100 86 7 97 38 7 5 5 5 5 5 19 25 62 73 20 7 25 35 40
76 36 5 5 7 38 7 35 22 68 96 100 94 40 72 53 79 75 62 50 55 68 93 75 85 40 98 67 88 50 5 5
5 5 5 5 15 5 5 18 57 77 100 98 94 43 66 82 78 87 90 90 96 95 100 88 78 68 30 83 70 72 6 76
5 5 24 50 22 14 37 32 100 65 100 96 84 86 100 88 100 100 100 82 88 70 99 98 100 98 100 90 100 98 56 96
5 11 74 40 40 95 7 80 90 100 100 100 94 100 100 100 100 100 100 100 100 100 100 92 100 100 100 75 100 99 85 98
5 5 10 18 98 48 50 82 76 88 99 100 100 100 100 100 100 100 100 100 100 99 100 100 100 94 18 66 100 80 91 62

GFSFLT1_prec_cloud_057.txt.gz
Cloud_Cover
100 99 100 100 100 91 100 100 100 100 99 78 100 100 99 78 92 99 99 95 40 5 5 5 4 5 2 0 0 0 0 0
100 100 100 100 100 71 92 100 100 100 100 100 100 100 100 100 100 100 26 3 5 5 5 5 0 0 0 0 0 0 0 0
100 100 99 100 100 100 100 100 100 100 100 100 100 100 86 75 6 7 5 4 5 5 5 4 0 0 2 3 1 0 0 0
100 98 100 100 100 100 100 100 100 100 100 100 100 59 74 34 22 2 4 5 5 5 5 5 4 5 5 5 4 0 0 0
100 100 100 100 100 100 100 100 99 18 9 8 13 14 8 0 0 0 4 1 4 0 5 5 5 50 84 96 1 0 0 0
100 100 100 53 67 65 86 12 5 8 6 24 2 0 0 2 27 45 45 95 90 62 6 5 57 15 4 0 0 0 5 5
52 5 7 7 39 47 10 5 5 25 17 0 0 0 4 5 14 100 94 84 97 69 10 5 5 4 4 1 0 1 0 5
12 5 5 5 5 4 4 0 0 0 0 0 0 2 5 5 55 100 100 74 75 98 38 5 5 5 5 5 5 5 5 6
5 6 0 0 0 1 4 0 0 0 0 0 1 5 17 98 100 100 91 100 81 81 7 5 5 5 5 5 5 5 4 1
0 0 0 0 0 0 0 0 0 0 0 0 10 92 90 100 96 100 100 100 99 5 33 5 5 5 5 5 5 5 5 5
0 0 0 0 0 0 0 3 32 33 0 4 74 90 100 100 100 100 100 38 6 97 6 24 12 6 69 5 5 5 5 5
0 0 0 6 17 72 74 21 92 100 100 74 100 100 100 100 96 100 92 5 25 41 69 55 64 92 90 7 5 5 6 26
0 0 6 87 97 100 100 100 100 96 98 100 100 100 100 98 99 99 6 5 5 5 46 69 87 93 94 45 31 62 93 86
0 4 37 100 100 100 100 100 100 100 100 100 100 100 95 90 100 38 70 84 62 82 65 83 100 54 11 92 100 100 100 100
3 5 98 100 100 100 100 100 100 94 100 100 100 88 100 100 91 89 88 76 100 100 100 100 100 55 92 100 100 100 100 100
5 31 59 26 12 11 13 7 3 32 93 100 100 100 89 66 46 99 100 100 100 100 100 100 100 100 100 100 100 100 100 83
3 5 18 5 5 5 5 5 48 88 72 85 90 100 99 100 100 100 100 100 100 98 93 100 100 100 100 100 100 77 74 100
5 5 5 5 6 13 16 31 62 63 33 99 100 97 100 100 100 100 100 100 97 95 93 100 100 100 100 100 99 26 47 100
5 5 5 5 18 62 61 52 38 44 93 100 84 100 100 100 100 100 100 100 100 100 100 100 100 100 100 48 41 15 97 25

GFSFLT1_prec_cloud_060.txt.gz
Cloud_Cover
100 100 100 100 100 100 100 100 100 100 100 100 100 100 100 100 98 98 100 100 100 100 100 100 93 13 5 4 0 0 0 0
100 100 100 68 100 100 100 100 100 100 100 100 100 100 63 100 100 100 100 100 14 5 2 5 19 4 0 0 0 0 0 5
100 100 19 24 94 100 98 100 100 97 100 100 98 97 98 100 100 100 100 98 87 23 52 6 5 4 1 3 5 5 21 3
78 80 97 96 100 78 95 58 99 100 100 100 100 100 100 98 76 6 7 15 15 2 5 1 1 0 5 5 5 3 0 1
88 100 100 96 96 94 99 100 100 100 100 100 100 100 99 74 24 34 6 1 4 0 1 2 4 5 5 5 5 4 0 0
100 100 100 100 100 100 100 100 70 34 7 10 14 39 32 41 3 0 1 5 5 5 5 5 5 5 5 3 0 0 0 0
100 100 100 100 98 28 18 10 19 36 13 58 67 8 0 0 1 5 40 65 90 99 79 73 27 22 5 0 0 1 5 0
5 5 81 48 32 5 29 70 58 14 2 0 0 0 0 5 5 24 96 87 83 56 100 100 69 5 5 5 5 5 3 1
29 4 6 5 5 3 4 1 0 0 0 0 0 0 5 41 18 100 100 98 100 64 100 99 86 5 5 5 67 5 5 5
71 8 5 5 4 0 0 0 0 2 1 5 5 9 95 92 93 93 100 100 100 100 98 100 6 5 5 56 61 5 5 5
5 2 0 0 0 0 0 10 39 1 1 23 35 100 95 99 83 21 77 95 98 94 99 30 6 10 78 97 12 15 5 6
0 0 0 0 0 0 0 0 4 33 12 4 64 76 21 100 95 100 33 77 88 100 61 54 76 98 100 78 76 46 55 69
0 0 0 0 0 0 0 2 21 32 100 100 100 100 100 100 100 78 100 80 86 100 5 8 86 35 42 33 65 100 100 99
0 0 0 0 2 5 5 26 98 98 100 99 100 100 100 100 86 89 94 9 49 5 38 69 60 73 88 94 95 77 91 100
0 0 0 5 5 12 96 100 92 100 100 100 100 99 100 62 100 82 24 24 13 90 61 84 100 99 95 100 100 100 100 100
0 0 16 35 95 67 31 100 100 100 85 17 14 84 70 89 92 97 35 98 80 92 94 98 100 100 100 100 100 100 96 100
1 74 4 4 44 5 30 67 10 5 5 9 100 100 12 5 5 95 75 99 94 86 100 100 100 100 100 100 100 100 100 5
5 5 5 5 5 5 5 5 5 5 12 98 100 56 5 30 100 90 99 100 96 100 100 89 100 100 100 100 100 36 5 5
5 5 5 5 5 5 5 5 33 100 100 100 95 67 81 98 96 99 100 100 100 100 100 100 100 100 83 24 5 5 24 50

GFSFLT1_prec_cloud_066.txt.gz
Cloud_Cover
100 100 100 100 71 98 96 100 100 100 100 98 100 100 100 100 90 98 100 90 84 5 81 100 100 43 74 100 74 14 6 5
100 97 100 87 100 97 67 100 100 100 100 100 100 100 97 100 100 100 97 100 100 100 100 100 100 71 99 53 42 5 1 0
100 100 72 6 100 100 100 100 100 100 100 100 100 100 100 100 100 100 100 100 100 100 96 84 90 46 71 66 4 1 0 4
100 100 100 100 100 100 100 100 100 100 100 100 100 100 100 100 100 100 100 100 100 97 60 72 80 67 5 5 4 5 5 5
98 100 100 100 100 100 100 100 100 100 100 100 100 100 100 100 100 98 37 62 88 72 99 75 8 18 5 5 4 5 36 4
84 83 100 100 100 100 100 100 100 100 100 100 100 100 100 100 100 81 45 15 83 36 26 66 18 6 32 22 44 5 5 5
100 100 100 100 100 100 92 100 100 86 42 100 100 100 100 95 77 69 46 16 34 90 69 99 85 60 81 99 67 5 49 5
100 100 99 96 99 98 100 98 98 100 100 100 100 100 64 85 38 6 4 14 94 92 58 93 100 100 100 87 57 47 5 5
100 100 99 100 100 100 100 100 82 98 99 100 100 100 46 15 5 5 2 5 9 100 100 100 100 100 100 100 76 8 5 5
28 33 89 98 100 100 100 100 100 100 100 100 87 39 5 0 5 37 98 5 76 76 100 99 100 100 99 94 29 64 5 5
91 14 5 5 48 66 88 100 100 100 100 50 7 1 0 3 40 5 17 92 100 100 91 100 90 94 22 98 100 96 55 38
7 5 5 14 48 88 100 87 54 56 7 0 0 0 59 100 95 95 73 64 100 100 97 16 100 100 86 83 31 63 72 98
5 5 4 29 49 78 29 8 0 0 0 1 5 70 45 39 98 100 100 100 100 14 30 99 38 66 63 84 92 100 71 84
3 4 5 5 0 4 2 3 5 24 41 6 95 88 98 99 66 100 100 91 11 51 100 90 83 85 88 89 80 84 100 93
0 0 0 0 1 7 5 100 100 100 82 46 84 72 82 72 89 100 89 76 94 88 100 100 100 100 97 78 95 90 100 100
0 0 2 0 3 10 81 84 81 100 94 55 100 100 99 95 100 94 97 100 100 100 99 95 94 100 72 71 71 96 95 21
0 0 5 4 38 5 5 5 5 65 100 100 100 100 100 100 100 77 100 100 98 90 78 97 100 99 63 61 76 70 5 5
0 0 0 2 5 5 8 64 61 98 100 100 100 100 100 99 92 86 98 99 68 80 93 66 71 100 100 73 7 5 5 6
5 5 5 5 5 6 79 76 45 100 100 100 100 100 98 100 100 100 85 79 100 100 96 84 100 87 40 6 7 5 30 6

GFSFLT1_prec_cloud_069.txt.gz
Cloud_Cover
100 100 100 100 100 100 100 100 100 100 100 99 97 100 100 100 100 100 100 100 100 93 58 8 81 100 100 99 52 14 18 25
100 100 100 100 100 100 100 100 100 100 100 100 100 100 100 100 100 100 100 100 100 66 86 42 76 100 100 96 6 29 55 34
88 90 100 100 23 78 100 94 100 100 97 100 100 100 100 100 100 100 100 100 100 100 89 100 95 43 65 42 24 59 5 3
99 89 93 100 95 33 43 99 62 76 82 96 81 100 100 100 100 100 100 100 52 65 100 100 58 35 40 47 23 5 5 5
100 100 88 88 95 68 81 36 51 75 90 88 100 100 100 100 100 100 100 100 73 76 55 34 38 9 5 33 8 5 5 5
100 100 100 100 100 100 100 100 100 100 98 81 98 99 100 100 100 100 100 95 21 51 26 5 42 92 100 100 31 70 39 6
98 100 100 100 100 100 100 100 100 100 100 100 100 100 100 100 100 100 100 100 61 6 5 19 77 68 100 100 100 71 67 50
100 100 100 100 100 100 100 100 100 100 100 100 100 100 100 100 100 100 100 94 6 5 5 29 52 72 100 100 87 71 40 28
65 100 100 100 100 100 100 100 100 100 100 100 100 100 100 100 100 100 100 26 5 23 76 16 100 100 99 83 47 6 8 5
53 93 98 100 100 100 100 100 99 100 100 100 100 100 100 100 100 100 8 41 81 72 66 100 100 100 51 5 24 5 5 6
41 35 60 62 63 100 14 90 100 100 100 100 100 100 100 97 91 12 44 97 91 99 100 100 100 95 6 5 5 5 40 42
75 5 5 5 5 5 44 88 100 100 100 100 100 100 75 84 100 61 95 91 100 100 100 100 76 18 86 16 5 39 61 6
9 79 26 11 5 9 74 94 100 98 100 95 99 90 100 100 94 100 100 100 100 100 100 100 26 59 5 57 39 5 5 5
0 0 0 20 84 96 71 52 60 100 100 100 100 100 100 100 99 100 100 100 97 100 86 62 27 52 58 6 6 5 5 5
4 1 5 6 31 43 25 22 100 100 100 100 100 100 100 99 100 100 100 100 100 100 72 90 82 72 12 5 5 5 5 5
18 5 3 5 7 14 21 68 100 100 100 100 100 100 97 100 100 100 100 100 62 66 62 81 71 51 48 5 5 5 5 11
4 2 5 5 5 16 61 99 100 100 100 100 100 100 100 100 100 100 100 68 58 100 64 92 100 94 57 5 6 15 39 19
0 0 4 11 11 23 60 76 47 58 96 100 100 100 100 97 100 100 9 94 93 81 100 75 49 34 5 6 28 15 39 28
2 0 3 21 28 32 19 29 78 100 99 100 100 100 100 100 96 50 100 98 72 71 34 5 9 5 5 24 5 5 38 5

GFSFLT1_prec_cloud_072.txt.gz
Cloud_Cover
100 100 100 100 100 100 100 100 100 100 100 100 100 100 100 100 100 100 100 100 97 86 93 100 80 74 92 100 100 51 74 100
100 100 100 100 100 100 100 100 100 100 100 100 100 100 100 83 100 100 100 100 100 94 100 100 100 100 100 100 9 9 90 22
83 100 100 100 94 100 100 100 100 100 100 100 100 100 100 100 100 100 100 100 100 85 86 100 100 100 86 25 20 17 12 5
100 100 100 100 100 91 100 77 85 100 100 100 100 100 100 100 100 100 100 100 100 100 100 100 100 72 66 6 11 29 5 14
100 100 100 100 99 100 100 54 43 56 75 26 57 99 100 100 100 100 100 100 91 92 100 100 100 94 53 5 56 40 96 25
5 91 100 6 39 43 82 41 58 91 84 97 74 90 100 100 100 100 100 100 99 100 100 100 100 97 13 54 5 18 100 77
100 100 91 100 100 97 98 100 100 100 100 100 100 100 98 100 100 100 100 96 100 100 100 100 100 100 69 86 100 100 90 15
97 100 100 100 100 100 100 100 100 46 76 93 100 100 100 100 100 100 100 95 100 100 100 100 100 60 99 100 100 100 79 8
29 50 79 100 100 100 100 100 100 100 100 100 100 100 100 100 100 100 100 100 100 100 100 99 8 29 100 100 100 100 99 7
98 100 100 100 31 95 100 98 99 100 100 100 100 100 100 100 100 100 100 100 100 100 95 12 74 95 100 100 93 60 88 7
27 27 17 13 5 5 5 6 21 69 74 100 100 100 100 100 100 100 100 100 90 73 99 100 100 100 100 73 8 5 5 5
60 43 96 100 95 6 5 5 5 5 27 95 100 100 100 100 100 100 100 94 98 100 100 100 100 100 73 24 9 5 5 5
70 5 5 6 5 7 50 7 6 5 34 100 100 100 100 100 100 100 100 100 100 100 100 100 100 99 69 69 78 5 5 5
100 65 0 0 3 5 14 66 61 70 100 100 100 100 100 100 100 100 100 100 100 100 100 100 100 100 90 66 79 64 27 5
66 3 2 0 3 11 36 48 46 32 100 100 100 100 100 100 100 100 100 100 100 100 100 100 100 100 53 56 95 69 23 52
3 0 2 2 13 66 75 65 52 91 100 100 100 100 100 100 100 100 100 100 100 100 100 99 78 73 48 9 7 61 63 65
10 5 4 5 26 80 100 98 100 100 100 100 100 100 100 100 100 100 100 100 100 92 100 100 100 100 100 79 100 78 41 5
89 68 6 1 38 70 100 100 100 100 100 99 100 100 100 100 100 98 100 100 98 99 100 100 100 100 66 66 44 69 31 5
98 99 97 44 61 96 100 100 100 98 93 82 83 66 98 100 100 52 100 100 100 100 100 100 100 51 11 80 87 41 5 8

GFSFLT1_prec_cloud_075.txt.gz
Cloud_Cover
100 100 100 100 100 100 100 100 100 100 100 100 100 100 100 100 100 100 100 100 100 100 100 99 11 44 89 77 70 95 100 100
100 100 100 100 100 100 100 100 100 100 100 92 100 100 100 100 100 100 100 100 100 100 100 100 98 69 100 97 89 100 100 100
100 100 100 100 100 100 100 100 100 100 100 99 100 100 100 100 100 100 100 100 100 100 91 84 100 100 100 93 49 42 34 14
92 100 100 100 100 100 100 100 100 100 100 100 100 100 100 100 100 100 96 92 93 100 100 100 100 100 95 99 96 91 94 55
100 100 89 100 100 100 100 100 100 100 100 100 100 100 100 100 95 100 100 100 100 100 100 98 100 61 45 93 100 100 100 100
100 100 100 8 48 88 61 77 99 100 100 85 74 49 100 100 100 64 100 99 100 100 100 100 100 100 100 100 100 100 100 100
10 100 100 82 87 5 4 5 42 53 74 71 88 86 100 100 100 100 98 100 100 100 100 100 100 100 100 100 100 100 100 100
72 62 39 42 91 57 24 76 38 51 79 100 94 86 100 98 100 100 100 100 100 100 100 100 100 100 100 100 100 100 100 100
38 83 100 100 100 100 100 14 55 94 71 59 100 100 100 100 100 100 100 100 100 100 100 100 100 100 100 100 100 100 100 100
19 13 21 22 50 21 64 94 49 79 96 100 100 100 100 100 100 100 100 100 100 100 96 100 100 100 100 100 100 100 100 99
9 34 74 88 100 100 100 100 73 67 88 90 100 100 100 100 100 100 100 100 100 100 100 100 100 100 100 100 100 99 100 100
5 5 5 5 5 5 15 21 32 67 92 99 100 100 100 100 100 100 100 100 100 100 100 98 100 100 100 100 100 100 100 100
5 5 5 5 5 5 12 19 5 7 27 96 100 100 88 100 100 100 100 100 100 100 100 100 100 100 100 100 100 98 98 93
10 5 5 40 12 0 5 28 26 62 100 98 98 98 100 100 100 100 100 100 100 100 100 100 100 100 100 100 100 100 71 98
5 5 22 10 5 0 4 44 67 81 54 87 100 100 100 100 100 100 100 100 100 100 100 100 100 100 100 100 100 100 100 90
5 10 30 21 6 5 3 50 100 100 100 100 100 100 100 100 100 100 100 100 100 100 100 100 100 100 100 99 100 100 100 100
18 5 8 100 100 66 93 100 100 100 100 100 100 100 100 100 100 100 100 100 100 100 100 100 100 100 100 100 100 100 100 100
0 0 0 4 59 100 100 100 100 100 100 100 100 100 100 100 100 100 100 100 100 100 100 96 96 100 100 100 100 100 100 100
0 0 0 15 99 100 94 100 100 100 100 100 100 100 100 95 75 93 84 90 100 96 90 100 100 100 100 100 100 100 100 100

GFSFLT1_prec_cloud_078.txt.gz
Cloud_Cover
98 97 94 100 100 100 100 100 100 100 100 100 100 100 100 100 100 100 100 100 100 100 100 100 100 100 100 97 94 78 74 99
95 98 100 55 54 96 100 100 100 100 100 100 100 100 100 100 100 100 100 100 100 100 100 100 100 100 100 72 44 100 79 98
100 100 78 100 100 100 100 100 100 100 100 84 100 100 100 100 100 100 100 100 100 100 100 100 100 95 96 100 97 61 95 100
95 100 100 100 96 100 100 100 100 100 72 47 100 100 100 100 100 100 100 100 100 100 96 100 100 98 69 68 100 100 84 59
100 100 70 87 100 100 100 100 100 100 100 100 100 100 100 100 99 100 100 100 100 100 100 100 75 100 100 100 100 100 100 81
100 100 85 67 83 12 79 90 100 100 100 100 100 100 100 100 100 100 99 100 98 100 100 100 100 99 100 100 100 100 100 100
100 100 100 100 100 84 51 96 100 100 100 100 100 100 90 98 93 96 88 100 100 100 100 100 100 88 100 100 100 100 100 100
66 100 100 100 100 100 100 86 66 97 56 100 100 100 100 100 100 100 100 100 100 100 100 100 100 100 100 100 100 100 100 100
100 72 3 58 100 100 18 11 77 20 6 84 97 100 100 100 100 100 100 100 100 100 100 98 100 100 100 100 100 100 100 100
5 83 63 64 6 56 30 4 44 94 99 75 9 5 38 97 100 100 100 100 100 100 100 100 100 100 100 100 100 100 100 100
4 5 5 24 51 20 39 43 10 5 34 42 67 51 54 73 99 90 95 82 94 100 100 100 100 100 100 100 100 100 100 100
5 5 5 13 61 97 5 12 16 14 6 5 5 5 68 100 96 93 94 100 100 100 100 100 100 100 100 100 100 100 100 100
4 5 0 3 96 23 15 5 4 5 56 86 12 39 80 100 100 99 100 99 91 100 100 100 100 100 100 100 100 100 100 100
2 5 5 1 0 0 5 4 3 14 89 97 55 68 100 100 100 100 100 100 100 100 99 98 100 100 100 100 100 100 100 100
1 32 2 0 2 5 0 91 100 96 54 39 72 100 99 100 100 100 100 100 100 100 100 100 100 100 100 100 100 100 100 100
39 2 5 5 0 0 0 96 72 31 14 78 100 100 100 100 100 100 100 100 100 99 100 100 100 100 100 100 100 100 100 100
5 0 0 0 0 0 0 14 5 44 100 100 100 100 100 100 100 100 98 100 100 100 100 100 100 99 100 100 98 100 100 100
6 0 0 0 0 1 1 0 9 36 100 100 100 100 100 100 100 100 100 100 100 100 100 100 95 100 99 92 100 100 100 100
17 4 4 97 4 1 1 4 32 94 100 100 100 100 100 100 100 100 100 100 100 100 100 100 100 80 42 89 100 63 100 100

GFSFLT1_prec_cloud_084.txt.gz
Cloud_Cover
100 100 100 100 100 100 100 100 100 100 100 100 100 100 100 100 100 100 99 95 99 80 9 84 48 52 76 96 100 100 29 22
100 100 100 100 100 100 100 100 100 100 100 100 100 100 100 100 100 100 100 97 95 52 50 67 43 81 99 100 100 100 100 98
100 100 100 100 100 100 100 100 100 100 100 100 100 100 100 100 100 100 100 100 100 100 100 99 100 96 100 100 100 100 61 96
88 65 95 63 100 100 100 100 100 100 100 100 100 100 100 100 100 100 100 100 100 100 100 100 100 100 96 100 95 100 100 100
10 52 12 100 54 100 100 100 100 100 100 100 100 100 100 100 100 100 100 100 100 100 100 100 100 100 100 100 100 100 100 100
5 38 100 92 36 100 100 100 100 100 100 100 100 100 100 100 100 100 100 100 100 100 100 100 100 94 100 77 54 100 99 100
63 36 48 98 89 58 16 93 100 100 100 100 100 100 100 100 100 100 100 100 100 100 100 100 100 100 100 100 100 100 100 100
5 5 6 26 40 3 4 0 3 9 48 95 80 5 4 85 53 51 77 100 100 100 100 98 77 80 82 91 97 73 93 100
0 4 0 0 4 24 96 86 62 5 22 39 5 5 5 6 8 5 19 18 42 73 93 88 100 100 97 100 100 100 98 100
0 0 2 61 2 0 5 14 98 65 100 100 11 7 22 5 3 0 5 62 56 60 54 100 99 100 100 100 100 93 99 96
0 0 0 0 4 74 100 98 99 35 5 5 34 92 78 7 6 2 5 16 13 97 100 100 100 100 97 100 83 100 81 100
0 0 0 0 4 35 90 100 100 95 98 29 5 12 60 100 74 6 6 60 100 100 100 100 100 100 48 100 93 100 100 100
5 0 3 0 0 0 1 43 100 100 100 100 31 4 5 89 90 100 100 100 100 100 100 100 100 84 97 98 100 100 58 94
2 10 5 0 0 0 0 1 6 93 98 95 92 21 16 40 67 100 100 100 100 100 100 100 100 100 100 100 98 100 100 100
1 0 0 6 7 5 0 0 0 0 41 72 85 99 77 48 99 100 100 100 100 100 100 100 100 100 100 99 97 100 100 100
0 0 0 4 2 3 1 0 0 0 0 77 100 100 100 100 100 100 100 100 100 100 100 100 100 100 100 100 100 100 100 100
3 5 0 0 3 5 25 19 26 5 1 93 100 100 100 100 100 100 100 100 100 100 100 100 100 100 100 100 100 100 100 100
5 5 5 1 2 1 63 100 91 86 100 100 100 100 100 100 100 100 100 100 100 100 100 100 100 100 100 100 100 100 100 100
5 8 85 68 96 98 100 100 100 100 100 100 100 100 100 100 100 100 100 100 100 100 100 100 100 100 100 100 100 100 94 89

GFSFLT1_prec_cloud_087.txt.gz
Cloud_Cover
100 100 100 100 100 100 100 100 100 100 100 100 100 100 100 100 100 100 100 100 100 100 100 99 94 83 58 87 100 100 100 100
100 100 100 100 100 100 100 100 100 100 100 100 100 100 100 100 100 100 100 100 96 77 96 65 86 74 100 100 100 100 100 100
100 100 100 100 100 100 100 100 100 100 100 100 100 100 100 100 100 100 100 100 100 100 92 100 100 100 100 100 100 100 100 100
80 100 100 100 100 100 100 100 100 100 100 100 100 100 100 100 100 100 100 100 100 100 100 100 100 100 100 100 100 100 100 100
80 100 100 100 100 100 100 100 100 100 100 100 100 100 100 100 100 100 100 100 100 100 100 100 100 100 100 100 100 98 100 93
16 90 92 100 100 100 100 100 100 100 100 100 100 100 100 100 100 100 100 100 100 100 100 100 100 100 100 100 99 100 100 100
1 1 11 86 93 100 100 100 100 100 100 100 100 100 100 100 100 100 100 100 100 100 100 100 100 100 100 100 100 100 100 100
3 5 4 20 64 73 70 100 98 79 100 100 100 100 100 100 100 100 100 100 100 100 100 100 100 100 20 22 32 95 100 100
0 0 0 5 5 90 54 9 99 92 88 70 30 12 100 100 89 18 19 41 72 61 67 84 82 33 37 100 97 100 100 100
0 0 0 2 100 65 7 33 5 6 26 11 25 8 17 5 7 5 5 28 85 81 56 23 62 100 100 98 45 43 94 51
5 0 3 3 94 100 100 100 100 98 64 25 22 5 5 13 3 5 5 5 5 66 81 98 87 100 86 100 59 68 96 95
1 0 0 0 17 90 100 100 100 100 100 32 19 5 5 5 5 4 8 8 5 67 81 100 100 100 100 100 92 100 96 100
0 0 0 0 0 0 1 12 86 100 100 100 96 5 2 5 16 20 34 22 52 100 100 100 100 100 100 100 100 100 100 100
4 0 0 0 0 0 0 0 0 80 96 100 100 93 62 22 6 26 27 82 100 100 100 100 100 100 100 100 100 100 100 100
5 3 0 5 0 0 0 0 0 0 0 0 2 60 9 7 70 76 94 100 100 100 100 100 100 100 100 100 100 100 100 100
37 5 0 0 0 1 0 0 0 0 0 0 2 1 5 28 84 93 100 100 100 100 100 100 100 100 100 100 100 100 100 100
8 5 1 0 4 3 0 3 1 5 5 5 31 55 63 78 91 100 100 100 100 100 100 100 100 100 100 100 100 100 100 100
72 8 5 5 2 5 6 28 19 7 67 100 100 100 100 100 100 100 100 100 100 100 100 100 100 100 100 100 100 100 100 100
86 21 2 100 99 94 88 89 100 100 100 100 100 100 100 100 100 100 100 100 100 100 100 100 100 100 100 100 100 100 100 100

GFSFLT1_prec_cloud_090.txt.gz
Cloud_Cover
100 100 100 100 100 100 100 100 100 100 100 100 100 100 100 100 100 100 100 100 100 100 100 100 100 100 96 96 100 100 100 100
99 100 100 100 100 100 100 100 100 100 100 100 100 100 100 100 100 100 100 100 100 100 100 100 100 100 99 100 100 100 100 100
95 100 100 100 100 100 100 100 100 100 100 100 100 100 100 100 100 100 100 100 100 100 100 100 100 100 100 100 100 96 100 100
89 99 97 100 100 100 100 100 100 100 100 100 100 100 100 100 100 100 100 100 100 100 100 100 100 100 100 100 100 100 100 100
8 100 100 100 100 100 100 100 100 100 100 100 100 100 100 100 100 100 100 100 100 100 100 100 100 100 100 100 100 100 100 100
0 32 100 100 100 100 100 100 100 100 100 100 100 100 100 100 100 100 100 100 100 100 100 100 100 100 100 100 100 100 100 100
0 9 100 100 100 100 100 100 100 100 100 100 100 100 100 100 100 100 100 100 100 100 100 100 100 100 100 100 100 100 100 100
14 52 100 100 100 100 100 100 100 100 100 100 100 100 100 100 100 100 100 100 100 100 100 100 100 100 100 100 100 100 100 100
1 8 29 80 100 100 100 100 100 100 100 100 100 100 100 100 100 100 100 100 100 100 100 100 100 100 89 92 92 100 100 100
5 0 3 9 47 84 100 96 83 100 100 81 99 100 100 100 100 100 100 100 100 100 100 100 100 98 99 58 100 100 100 91
1 0 0 0 4 18 48 18 32 68 94 28 40 11 50 91 100 100 93 100 67 64 60 38 69 88 100 96 100 100 100 100
2 0 0 0 0 0 94 91 22 30 94 93 17 5 5 5 5 12 9 5 5 5 43 74 70 100 98 100 100 100 100 100
0 0 0 0 0 0 0 4 88 62 5 78 100 31 5 17 88 95 5 68 35 95 95 85 100 100 100 100 100 100 100 100
0 0 6 4 0 2 0 0 0 2 78 98 100 100 100 100 58 46 98 5 100 96 100 100 100 100 100 100 100 100 100 100
2 72 14 0 1 92 0 0 0 0 0 1 2 29 5 54 98 100 80 100 100 100 100 100 100 100 100 100 100 100 100 100
75 56 5 0 2 9 5 2 0 0 0 0 0 0 0 0 0 2 66 100 96 100 99 100 100 100 100 100 100 100 100 100
89 49 100 5 0 0 3 1 0 0 0 0 0 0 0 0 0 5 34 91 100 100 100 100 100 100 100 100 100 100 100 100
100 100 100 100 38 1 0 0 2 2 1 5 20 16 14 59 66 84 95 100 100 100 100 100 100 100 100 100 100 100 100 100
100 100 100 100 98 87 99 98 82 44 88 98 100 100 100 100 100 100 100 100 100 100 100 100 100 100 100 100 100 100 100 100

GFSFLT1_prec_cloud_093.txt.gz
Cloud_Cover
49 100 100 100 100 100 100 100 100 100 100 100 100 100 100 100 100 100 100 100 100 100 100 100 100 95 100 89 99 100 78 68
83 100 100 100 100 100 100 100 100 100 100 100 100 100 100 100 100 100 100 100 100 100 100 100 100 100 100 95 94 90 91 100
82 100 100 100 100 100 100 100 100 100 100 100 100 100 100 100 100 100 100 100 100 100 100 100 99 99 100 100 100 100 100 100
21 90 100 100 100 100 100 100 100 100 100 100 100 100 100 100 100 100 100 100 100 100 100 100 100 100 100 100 100 100 100 100
0 19 100 100 100 100 100 100 100 100 100 100 100 100 100 100 100 100 100 100 100 100 100 100 100 100 100 100 100 100 100 100
0 0 41 100 100 100 100 100 100 100 100 100 100 100 100 100 100 100 100 100 100 100 100 100 100 100 100 100 100 100 100 100
0 0 38 100 100 100 100 100 100 100 100 100 100 100 100 100 100 100 100 100 100 100 100 100 100 100 100 100 100 100 100 100
0 0 4 95 100 100 100 100 100 100 100 100 100 100 100 100 100 100 100 100 100 100 100 100 100 100 100 100 100 100 100 100
0 0 0 6 100 100 100 100 100 100 100 100 100 100 100 100 100 100 100 100 100 100 100 100 100 100 100 100 100 99 100 79
0 0 0 0 94 100 100 100 100 100 100 100 100 100 100 100 100 100 100 100 100 100 100 100 100 100 98 98 100 100 100 97
4 0 5 5 8 96 100 100 100 100 100 100 100 99 100 100 100 100 100 100 100 100 100 100 100 100 100 100 100 100 95 100
5 2 5 5 5 3 82 100 82 47 37 40 40 66 67 89 99 100 100 78 98 68 9 6 44 37 80 95 93 91 100 100
35 86 5 2 1 0 0 22 60 84 25 23 12 6 100 100 87 7 19 98 98 64 16 14 80 100 100 100 100 100 100 100
100 92 71 0 2 0 0 0 0 2 58 99 72 45 82 100 95 100 100 100 19 5 7 52 48 100 100 100 100 100 100 100
99 15 47 13 100 9 0 0 0 0 0 0 24 41 20 77 69 41 100 71 5 5 5 33 82 100 100 100 100 100 100 100
100 39 5 100 82 4 4 0 0 0 2 0 0 0 0 0 0 0 0 0 37 92 47 93 94 100 98 100 100 100 100 100
100 100 72 98 99 85 5 2 1 0 0 0 0 0 0 0 0 1 25 34 84 99 100 100 100 100 100 100 100 100 100 100
100 100 87 24 100 55 28 11 15 3 0 0 0 5 5 5 5 99 100 59 71 79 99 100 100 100 100 100 100 100 100 100
100 100 100 72 98 100 100 100 100 9 6 33 25 20 56 84 92 80 94 100 100 100 100 100 100 100 100 100 100 100 100 100

GFSFLT1_prec_cloud_096.txt.gz
Cloud_Cover
0 0 27 100 100 100 100 100 100 100 100 100 100 100 100 100 100 100 100 100 100 100 96 100 100 100 100 100 90 78 92 81
0 6 33 92 100 100 100 100 100 100 100 100 100 100 100 100 100 100 100 100 100 100 100 100 100 100 100 100 97 84 71 92
0 0 23 78 100 100 100 100 100 100 100 100 100 100 100 100 100 100 100 100 100 100 100 100 100 75 100 100 100 100 100 99
0 4 46 76 84 100 100 100 100 100 100 100 100 100 100 100 100 100 100 100 100 100 100 100 100 100 98 100 100 93 93 100
0 0 6 83 73 100 100 100 100 100 100 100 100 100 100 100 100 100 100 100 100 100 100 100 100 100 100 100 100 99 100 100
0 0 0 56 99 96 93 100 100 100 100 100 100 100 100 100 100 100 100 100 100 100 100 100 100 100 100 100 100 100 100 100
4 0 0 1 99 100 100 100 100 100 100 100 100 100 100 100 100 100 100 100 100 100 100 100 100 100 100 100 100 100 100 100
5 0 0 0 28 96 100 100 100 100 100 100 100 100 100 100 100 100 100 100 100 100 100 100 100 100 100 100 100 100 100 100
11 1 0 0 0 74 87 83 100 100 100 100 100 100 100 100 100 100 100 100 100 100 100 100 100 100 100 100 100 100 100 100
93 7 0 0 0 1 77 62 100 100 100 100 100 100 100 100 100 100 100 100 100 100 100 100 100 100 100 100 100 100 100 100
56 65 1 0 0 0 14 3 8 84 100 100 100 100 100 100 100 100 100 100 100 100 100 100 100 100 100 100 100 100 96 98
19 100 6 0 0 0 6 24 1 1 86 100 100 100 100 100 100 100 100 100 100 100 100 100 100 100 100 86 22 90 96 94
5 66 96 5 0 0 0 69 16 0 5 9 7 31 61 27 92 100 100 99 100 59 99 30 27 7 9 21 86 88 100 100
45 9 100 5 5 25 0 0 0 0 1 23 16 17 5 36 89 54 75 13 15 20 13 15 5 5 55 7 9 37 94 99
100 100 100 91 5 5 0 1 0 0 0 2 24 22 5 5 48 30 12 10 50 12 5 5 5 5 5 27 85 87 100 95
100 75 76 100 48 5 5 5 5 0 0 0 0 0 0 0 4 5 5 49 85 81 33 5 20 46 28 49 61 84 100 100
85 80 9 100 100 100 86 53 5 0 0 1 0 0 0 0 0 2 0 0 0 0 1 18 19 49 100 100 100 100 100 100
100 92 36 100 100 100 100 88 4 5 5 0 2 1 5 5 13 39 75 73 86 56 80 100 100 100 100 100 100 100 100 100
70 100 100 63 95 100 100 99 100 30 37 12 4 6 25 52 89 100 100 100 100 100 100 100 100 100 100 100 100 100 100 100

GFSFLT1_prec_cloud_099.txt.gz
Cloud_Cover
0 0 2 62 100 98 100 100 100 100 100 100 100 100 100 100 100 100 100 100 100 100 100 100 100 100 100 100 100 100 100 98
0 0 1 65 100 90 100 100 100 100 100 91 100 100 100 100 100 100 100 100 100 100 100 100 100 100 100 100 100 100 100 98
0 0 0 83 100 100 84 100 100 100 100 100 100 100 100 100 100 100 100 100 100 100 100 100 100 100 100 100 100 100 75 100
0 0 0 37 100 100 100 100 100 100 100 100 100 100 100 100 100 100 100 100 100 100 100 100 100 100 100 100 100 98 100 96
0 0 0 2 100 100 100 100 100 100 100 100 100 100 100 100 100 100 100 100 100 100 100 100 100 100 100 100 100 100 100 100
0 0 0 0 36 100 98 100 100 100 100 100 100 100 100 100 100 100 100 100 100 100 100 100 100 100 100 100 100 100 100 100
0 0 0 0 31 100 100 100 100 100 100 100 100 100 100 100 100 100 100 100 100 100 100 100 100 100 100 100 100 100 100 100
5 0 3 0 10 97 95 100 100 100 100 100 100 100 100 100 100 100 100 100 100 100 100 100 100 100 100 100 100 100 100 100
33 0 2 5 0 12 35 100 100 100 100 100 100 100 100 100 100 100 100 100 100 100 100 100 100 100 100 100 100 100 100 100
82 0 2 5 0 0 0 10 27 98 100 100 100 100 100 100 100 100 100 100 100 100 100 100 100 100 100 100 100 100 100 100
96 7 0 73 4 0 0 0 0 12 96 100 100 100 100 100 100 100 100 100 100 100 100 100 100 100 100 100 100 100 100 100
60 97 0 1 8 2 0 0 0 0 2 96 100 100 100 100 100 100 100 100 100 100 100 100 100 100 100 100 100 100 100 100
32 100 2 3 23 17 0 0 0 0 0 1 32 100 100 100 100 100 100 100 100 100 100 100 100 100 100 100 100 100 100 98
10 100 29 0 1 98 6 0 0 0 0 0 2 22 90 100 100 100 100 100 100 100 100 100 100 100 100 100 86 29 4 5
13 97 81 5 1 13 75 2 0 0 0 0 0 0 5 14 35 41 23 62 60 54 59 64 44 32 44 41 73 26 3 5
78 41 5 33 5 1 17 11 0 0 0 0 0 0 7 18 37 43 46 48 28 35 30 29 58 77 60 30 49 48 89 100
100 93 51 45 8 16 5 52 23 5 4 0 0 0 1 15 10 15 44 60 85 88 100 96 100 100 100 100 100 100 100 100
99 100 92 88 81 100 24 100 96 100 25 5 5 3 13 40 70 100 100 100 100 100 100 100 100 100 100 98 100 100 100 100
99 58 74 85 98 100 100 84 90 100 100 100 22 27 41 82 100 100 100 100 100 100 100 100 100 100 100 100 100 100 100 100

GFSFLT1_prec_cloud_102.txt.gz
Cloud_Cover
0 0 0 0 0 58 100 100 100 100 100 100 100 91 100 100 100 100 100 100 100 100 100 100 100 100 100 100 100 100 100 100
0 0 0 0 0 39 100 100 100 100 100 100 100 100 100 100 100 100 100 100 100 100 100 100 100 100 100 100 100 100 100 87
0 0 0 0 0 100 100 96 100 55 100 100 100 82 100 98 100 100 100 100 100 100 100 100 100 100 100 100 100 98 100 100
0 0 0 0 2 100 100 100 100 99 100 100 100 100 100 100 100 100 100 100 100 100 100 100 100 100 100 100 94 100 100 100
3 0 0 0 20 100 100 99 100 100 100 100 100 100 100 100 100 100 100 100 100 100 100 100 100 100 100 100 100 100 100 100
0 3 0 0 10 99 100 100 100 100 100 100 100 100 100 100 100 100 100 100 100 100 100 100 100 100 100 100 100 100 100 100
4 5 0 0 0 79 100 100 100 100 100 100 100 100 100 100 100 100 100 100 100 100 100 100 100 100 100 100 100 100 100 100
5 5 2 0 0 35 99 100 100 100 100 100 100 100 100 100 100 100 100 100 100 100 100 100 100 100 100 100 100 100 100 100
18 5 3 0 0 38 100 100 100 100 100 100 100 100 100 100 100 100 100 100 100 100 100 100 100 100 100 100 100 100 100 100
39 5 5 0 0 1 53 100 100 100 100 100 100 100 100 100 100 100 100 100 100 100 100 100 100 100 100 100 100 100 100 100
45 26 5 2 2 0 0 3 15 97 100 100 100 100 100 100 100 100 100 100 100 100 100 100 100 100 100 100 100 100 100 100
89 22 5 5 4 0 0 0 0 12 100 100 100 100 100 100 100 100 100 100 100 100 100 100 100 100 100 100 100 100 100 100
96 5 31 18 59 1 0 3 0 0 1 100 100 100 100 100 100 100 100 100 100 100 100 100 100 100 100 100 100 100 100 100
98 6 98 12 74 64 0 0 0 0 0 0 69 40 97 100 100 100 100 100 100 100 100 100 100 100 100 100 100 100 100 100
43 19 46 5 29 100 8 1 1 4 0 0 0 20 4 1 81 100 100 100 100 100 100 100 100 100 100 100 100 100 100 100
100 100 47 5 5 5 5 4 14 0 4 0 0 0 0 11 20 32 100 100 100 100 100 100 100 100 100 100 100 100 100 100
100 100 68 100 13 58 93 14 5 21 0 0 0 0 0 1 30 0 0 19 96 100 100 100 100 100 100 100 100 100 100 100
100 100 100 22 96 100 67 5 58 79 4 1 5 6 0 8 20 37 96 100 100 100 100 100 100 100 100 100 100 100 100 100
99 65 100 98 57 28 5 9 7 100 98 4 6 19 62 96 92 100 100 100 100 100 100 100 100 100 100 100 100 100 100 100

GFSFLT1_prec_cloud_105.txt.gz
Cloud_Cover
100 100 0 0 0 0 0 4 62 82 100 100 100 100 100 100 100 100 100 100 98 96 80 88 95 99 100 100 100 100 100 99
100 100 0 0 0 0 0 40 94 71 100 100 100 100 100 100 100 100 100 100 100 100 100 100 78 100 100 100 100 100 100 100
100 37 0 0 0 0 15 100 100 92 95 100 100 100 100 100 100 100 100 100 100 100 100 100 100 100 100 100 100 100 100 100
100 3 0 0 0 0 83 100 100 56 100 97 100 100 100 100 100 100 100 100 100 100 100 100 100 100 100 100 100 100 100 100
99 4 3 0 0 0 80 100 99 80 100 100 100 100 100 100 100 100 100 100 100 100 100 100 100 100 100 100 100 100 100 97
100 4 3 0 0 0 27 100 100 99 100 100 100 100 100 100 100 100 100 100 100 100 100 100 100 100 100 100 100 100 100 100
100 3 4 0 0 0 28 100 100 100 100 100 99 100 100 100 100 100 100 100 100 100 100 100 100 100 100 100 100 100 100 100
100 6 9 0 0 0 0 100 100 100 100 100 100 100 100 100 100 100 100 100 100 100 100 100 100 100 100 100 100 100 100 100
99 6 25 5 2 0 0 94 100 100 100 100 100 100 100 100 100 100 100 100 100 100 100 100 100 100 100 100 100 100 100 100
99 5 5 5 4 0 0 9 100 100 100 100 100 100 100 100 100 100 100 100 100 100 100 100 100 100 100 100 100 100 100 100
100 100 98 20 5 0 7 0 100 96 100 100 100 100 100 100 100 100 100 100 100 100 100 100 100 100 100 100 100 100 100 100
100 100 100 49 5 5 5 2 45 99 84 81 92 100 100 100 100 100 100 100 100 100 100 100 100 100 100 100 100 100 100 100
100 100 100 98 5 5 5 5 0 1 62 55 3 100 100 100 100 100 100 100 100 100 100 100 100 100 100 100 100 100 100 100
100 100 98 100 5 5 5 61 5 0 75 98 26 34 99 100 100 100 100 100 100 100 100 100 100 100 100 100 100 100 100 100
100 100 91 100 72 5 7 80 22 34 0 26 100 100 0 73 100 100 100 100 100 100 100 100 100 100 100 100 100 100 100 100
98 100 100 56 79 28 52 6 5 5 0 0 6 79 0 0 14 89 100 100 100 100 100 100 100 100 100 100 100 100 100 100
100 100 99 100 97 48 47 26 18 5 0 0 0 0 0 1 0 0 10 88 100 100 100 100 100 100 100 100 100 100 100 100
100 100 71 100 100 38 88 73 65 5 5 1 1 36 4 2 2 7 22 99 100 100 100 100 100 100 100 100 100 100 100 100
100 100 55 100 100 89 17 43 44 19 5 5 5 15 5 11 88 100 100 100 100 100 100 100 100 100 100 100 100 100 100 100

GFSFLT1_prec_cloud_108.txt.gz
Cloud_Cover
97 98 8 100 25 0 0 0 0 0 100 100 100 100 100 100 100 100 100 100 100 100 98 100 77 51 100 59 94 100 100 100
100 100 8 100 67 1 0 1 32 22 100 100 100 100 100 100 100 100 100 100 100 100 97 100 63 82 100 100 100 100 100 100
100 100 3 100 78 4 2 6 45 12 16 100 100 100 100 100 100 100 100 100 100 100 92 99 99 43 100 97 100 100 98 100
68 100 23 100 42 5 0 11 21 12 14 77 100 100 100 100 100 100 100 100 100 100 100 100 100 100 100 99 100 100 100 100
98 100 52 100 12 0 0 6 47 100 34 15 94 100 100 100 100 100 100 100 100 100 100 100 100 100 100 100 100 100 100 100
100 100 64 100 12 0 0 18 97 100 96 48 33 100 100 100 100 100 100 100 100 100 100 100 100 100 100 100 100 100 100 100
100 100 97 100 47 0 0 30 40 99 100 100 100 100 100 100 100 100 100 100 100 100 100 100 100 100 100 100 100 100 100 100
100 100 100 100 92 12 7 69 61 100 100 100 100 82 100 100 100 100 100 100 100 100 100 100 100 100 100 100 100 100 100 100
100 100 55 100 95 8 11 22 58 95 100 96 91 93 98 100 100 100 100 100 100 100 100 100 100 100 100 100 100 100 100 100
100 100 100 100 88 2 11 0 15 37 100 100 100 23 75 100 100 100 100 100 100 100 100 100 100 100 100 100 100 100 100 100
100 100 100 100 24 1 4 2 0 27 100 100 100 93 69 100 100 100 100 100 100 100 100 100 100 100 100 100 100 100 100 100
100 100 100 6 5 82 6 0 5 11 100 100 100 79 60 100 98 100 100 100 100 100 100 100 100 100 100 100 100 100 100 100
65 100 100 100 86 100 100 0 5 4 71 100 100 81 53 100 100 100 100 100 100 100 100 100 100 100 100 100 100 100 100 100
96 100 100 96 89 100 100 4 5 5 6 87 100 100 57 86 100 100 100 100 100 100 100 100 100 100 100 100 100 100 100 100
100 100 95 98 26 11 38 5 5 5 21 53 99 87 55 29 33 100 100 100 100 100 100 100 100 100 100 100 100 100 100 100
87 100 100 100 78 86 65 36 26 5 18 78 59 9 2 0 16 22 100 100 100 100 100 100 100 100 100 100 100 100 100 100
100 100 100 100 100 100 100 100 89 75 5 5 41 51 67 0 0 2 2 7 99 100 100 100 100 100 100 100 100 100 100 100
100 96 99 100 100 100 100 100 100 72 5 11 5 2 58 15 4 42 73 21 51 86 100 100 100 100 100 100 100 100 100 100
100 100 96 100 100 100 94 100 100 100 97 100 96 24 11 18 75 100 100 92 80 100 100 100 100 100 100 100 100 100 100 100

GFSFLT1_prec_cloud_111.txt.gz
Cloud_Cover
5 11 55 5 0 100 98 10 26 22 89 100 100 100 100 100 100 100 100 100 100 100 100 100 73 100 100 100 20 100 100 89
5 59 99 94 6 100 100 29 34 61 100 100 100 100 100 100 100 100 100 100 100 100 100 100 94 100 100 100 93 82 90 100
6 68 92 100 5 100 100 15 60 41 53 100 100 100 100 100 100 100 100 100 100 100 100 100 100 98 97 57 30 96 62 100
76 100 92 100 4 96 100 38 79 22 14 79 91 100 100 100 100 100 100 100 100 100 100 100 100 100 97 74 76 75 100 100
85 100 100 100 4 91 100 41 56 22 18 19 62 100 100 100 100 100 100 100 100 100 100 92 100 100 100 92 100 100 100 100
50 100 100 92 18 90 93 53 43 12 37 36 10 37 100 100 100 100 100 100 100 100 100 100 100 100 100 100 100 100 99 100
77 100 84 12 77 100 57 56 26 45 100 52 0 0 50 100 100 100 100 100 100 100 100 100 100 100 100 100 98 100 100 100
100 100 100 82 79 98 68 77 20 96 100 95 1 0 7 68 100 100 100 100 100 100 100 100 100 100 100 100 100 100 100 100
100 100 100 92 80 100 100 84 83 100 100 100 99 99 100 98 92 100 100 100 100 100 100 100 100 100 100 100 100 100 100 100
100 100 100 100 100 100 100 60 94 88 100 100 100 100 100 100 100 100 100 100 100 100 100 100 100 100 100 100 100 100 100 100
100 100 100 98 88 100 100 37 97 70 100 99 90 100 100 100 100 100 100 100 100 100 100 100 100 100 100 100 100 100 100 100
100 98 100 93 100 94 85 57 70 48 96 100 58 100 100 100 100 100 100 100 100 100 100 100 100 100 100 100 100 100 100 100
100 100 100 100 50 100 100 56 52 28 2 71 71 56 100 100 100 100 100 100 100 100 100 100 100 100 100 100 100 100 100 100
98 100 100 100 98 97 100 94 47 5 4 88 100 100 96 100 100 98 100 100 100 100 100 100 100 100 100 100 100 100 100 100
100 100 100 100 100 100 88 99 100 74 5 93 100 100 100 100 100 100 98 100 100 100 100 100 100 100 100 100 100 100 100 100
100 100 100 100 100 100 100 90 100 100 65 33 100 100 100 93 100 75 100 98 100 100 100 100 100 100 100 100 100 100 100 100
100 100 100 100 100 100 100 78 82 100 56 100 100 100 100 100 88 79 77 100 87 98 100 100 100 100 100 100 100 100 100 100
100 100 100 100 100 100 100 100 100 46 51 93 100 98 98 45 47 68 100 99 100 100 100 100 100 100 100 100 100 100 100 100
100 100 100 100 100 100 100 100 100 100 96 93 100 100 81 85 76 87 100 100 100 100 100 100 100 100 100 100 100 100 100 100

GFSFLT1_prec_cloud_114.txt.gz
Cloud_Cover
45 90 2 0 1 28 9 32 25 25 47 93 99 100 100 100 100 100 100 100 100 100 100 100 100 100 98 93 80 100 18 6
74 37 0 4 29 96 34 53 44 48 84 100 100 100 100 100 100 100 100 100 100 100 100 100 100 100 100 100 100 100 91 5
88 23 0 22 42 100 41 16 68 52 89 100 100 100 100 100 100 100 100 100 100 100 100 100 100 100 100 100 100 100 99 97
97 2 0 10 39 100 74 39 63 99 100 100 100 100 100 100 100 100 100 100 100 100 100 100 100 100 100 100 100 100 99 100
68 0 0 8 30 52 23 93 95 96 84 100 100 100 100 100 100 100 100 100 100 100 100 100 100 100 100 100 100 99 95 65
5 0 0 0 80 96 30 100 100 100 89 94 100 100 99 100 100 100 100 100 100 100 100 100 100 100 100 100 100 94 100 100
4 0 0 5 100 81 96 100 100 100 76 36 53 24 82 100 100 100 100 100 100 100 100 100 100 100 100 100 100 100 100 100
0 0 0 34 100 100 100 100 100 100 74 48 10 50 96 100 100 100 100 100 100 100 100 100 100 100 100 100 100 99 100 100
0 0 20 35 90 100 100 100 100 100 60 12 6 28 60 100 100 100 100 100 100 100 100 100 100 100 100 100 100 100 100 100
0 4 97 98 82 100 100 100 94 100 36 4 86 42 88 91 86 64 99 100 100 100 100 100 100 100 100 100 100 100 100 100
0 0 97 100 91 98 100 100 100 72 31 9 100 100 100 100 90 45 83 100 100 100 100 100 100 100 100 100 100 100 100 100
0 2 100 95 81 100 100 100 100 100 32 52 100 100 100 100 82 48 100 100 100 100 100 100 100 100 100 100 100 100 100 100
44 6 100 79 77 100 100 100 100 100 100 100 100 100 100 100 97 99 100 100 100 100 100 100 100 100 100 100 100 100 100 100
34 87 100 100 100 100 100 100 100 100 26 95 100 100 100 100 100 99 100 100 100 100 100 100 100 100 100 100 100 100 100 100
97 100 100 100 100 100 100 100 100 100 75 93 100 100 100 100 100 99 100 99 100 100 100 100 100 100 100 100 100 100 100 100
100 100 100 93 100 100 100 100 100 100 69 90 100 100 100 100 100 100 100 100 100 100 100 100 100 100 100 100 100 100 100 100
100 100 100 100 100 100 100 100 100 97 83 100 100 100 100 100 100 100 100 100 100 100 100 100 100 100 100 100 100 100 100 100
100 100 100 100 100 100 100 100 100 100 95 100 100 100 100 100 100 100 100 100 100 100 100 100 100 100 100 100 100 100 100 100
100 100 100 100 100 100 100 100 100 100 100 100 100 100 100 100 100 100 100 100 100 100 100 100 100 100 100 100 100 100 100 100

GFSFLT1_prec_cloud_117.txt.gz
Cloud_Cover
2 9 48 6 86 57 0 0 7 20 52 72 100 100 100 100 100 100 100 100 100 100 100 100 100 100 100 100 100 48 100 100
5 13 5 35 72 62 0 7 54 73 100 100 100 100 100 100 100 100 100 100 100 100 100 100 100 100 100 100 93 98 100 100
21 15 24 95 84 12 10 31 100 63 81 100 81 100 100 100 100 100 84 100 100 100 100 100 100 100 100 100 99 92 100 83
5 34 7 78 15 5 32 51 100 96 79 92 62 36 90 100 100 100 94 100 100 100 100 100 100 100 100 100 100 100 100 86
5 22 56 40 80 4 26 95 100 100 70 45 43 37 91 100 100 100 100 100 100 100 100 100 100 100 100 100 100 100 100 100
5 4 16 100 57 1 45 100 100 100 57 100 39 21 100 100 93 100 100 100 100 100 100 100 100 100 100 100 100 100 100 100
4 4 53 40 41 75 92 100 100 100 100 100 70 38 100 97 98 100 100 100 100 100 100 100 100 100 100 100 100 100 100 100
4 4 14 18 20 99 100 100 100 100 100 100 100 100 94 67 99 100 100 100 100 100 100 100 100 100 100 100 100 100 100 100
5 5 95 8 2 12 100 100 100 100 100 100 100 77 52 65 59 93 100 100 100 100 100 100 100 100 100 100 100 100 100 100
5 5 46 5 1 0 9 100 100 100 100 100 90 96 85 100 86 100 100 100 100 100 100 100 100 100 100 100 100 100 100 100
18 5 5 5 0 0 11 100 100 100 100 100 75 84 74 100 100 100 100 100 100 100 100 100 100 100 100 100 100 100 100 100
7 5 7 5 39 55 100 100 100 100 100 100 86 54 95 100 100 100 98 58 100 100 100 100 100 100 100 100 100 100 100 100
81 76 92 5 97 100 100 100 100 100 100 100 80 99 100 100 100 100 100 100 100 100 100 100 100 100 100 100 100 100 100 100
36 5 8 7 62 100 100 100 100 100 100 100 49 67 29 100 100 100 100 100 100 100 100 100 100 100 100 100 100 100 100 100
5 5 55 100 100 100 100 100 100 100 100 100 64 52 34 100 100 100 98 95 100 100 100 100 100 100 100 100 100 100 100 100
87 4 86 100 100 100 100 100 100 100 100 100 87 54 42 100 100 100 100 100 100 100 100 100 100 100 100 100 100 100 100 100
13 16 100 100 100 100 100 100 100 100 100 100 100 66 99 100 100 100 100 100 100 100 100 100 100 100 100 100 100 100 100 100
30 100 100 100 100 100 100 100 100 100 100 100 100 97 100 100 100 100 100 100 100 100 100 100 100 100 100 100 100 100 100 100
69 96 100 100 100 100 100 100 100 100 100 100 100 100 100 100 100 100 100 100 100 100 100 100 100 100 100 100 100 100 100 100

GFSFLT1_prec_cloud_123.txt.gz
Cloud_Cover
2 3 100 100 99 100 100 100 100 100 100 16 6 88 53 99 99 28 77 70 100 94 100 85 82 100 100 100 100 100 100 100
5 5 5 68 100 100 100 100 100 100 100 68 0 40 93 98 100 44 90 95 58 69 100 100 100 100 100 100 100 100 100 100
5 5 57 78 94 54 100 83 100 100 100 72 2 63 92 100 100 97 82 100 100 40 100 100 100 100 100 100 100 100 100 100
5 22 28 20 5 97 100 100 100 100 96 93 66 100 95 100 100 100 97 100 95 65 91 100 100 100 100 100 100 100 100 100
100 44 28 18 74 5 26 100 100 100 60 89 24 100 100 100 100 100 100 90 86 100 74 71 100 100 100 100 100 100 100 100
100 100 96 100 100 8 37 100 100 100 97 67 75 100 100 97 100 46 96 40 99 100 44 99 100 100 100 100 100 100 100 100
100 100 100 100 100 100 100 100 10 97 100 37 98 100 71 100 100 100 83 41 91 100 89 81 100 100 100 100 100 100 100 100
100 100 100 100 100 81 100 86 100 97 100 100 100 100 100 100 100 59 40 100 100 100 96 100 100 100 100 100 100 100 100 100
100 100 100 100 84 86 92 81 59 93 100 98 100 100 100 100 100 100 100 69 96 100 100 100 100 100 100 100 100 100 100 100
100 100 100 100 100 19 38 89 100 100 100 73 66 100 100 100 88 100 100 100 76 95 100 100 100 100 100 100 100 100 100 100
100 100 100 96 96 91 100 100 98 70 98 100 94 100 100 100 72 55 95 96 100 87 100 100 100 100 100 100 100 100 100 100
100 100 100 100 100 99 99 34 97 99 100 97 94 100 100 100 100 100 83 100 88 100 100 100 100 100 100 100 100 100 100 100
100 100 100 89 100 100 100 100 100 100 100 80 100 100 100 100 100 100 99 100 84 80 100 100 100 100 100 100 100 100 100 100
100 100 100 47 71 81 89 100 100 100 68 99 100 100 100 100 100 100 95 99 99 57 29 100 100 100 100 100 100 100 100 100
85 63 100 100 100 100 100 100 100 45 30 100 100 100 100 100 100 100 100 100 99 91 96 99 100 100 100 100 100 100 100 100
25 9 86 100 100 100 100 66 75 98 24 100 100 100 100 100 100 100 100 100 100 90 87 83 100 100 100 100 100 100 100 100
7 67 63 100 91 88 70 42 11 80 93 100 100 100 100 100 100 100 100 100 98 91 100 100 100 100 100 100 100 100 100 100
9 56 100 94 81 22 9 43 47 93 100 100 100 100 100 100 100 100 100 100 100 100 100 100 100 100 100 100 100 100 100 100
95 100 100 70 58 37 40 61 100 100 99 100 100 100 100 100 100 100 100 100 100 100 100 100 100 100 100 100 100 100 100 100

GFSFLT1_prec_cloud_126.txt.gz
Cloud_Cover
73 5 3 0 14 6 40 100 70 97 100 100 93 100 100 52 5 76 5 0 36 10 11 30 41 74 100 100 100 100 100 100
5 5 0 5 84 28 5 5 39 16 29 74 20 92 100 100 7 87 100 47 1 14 67 100 100 100 86 100 100 100 100 100
100 100 69 62 5 6 7 100 99 58 11 51 100 100 100 83 23 60 100 100 46 82 99 100 100 100 100 99 100 100 100 100
100 45 100 100 97 11 22 42 45 5 30 77 89 100 100 100 100 100 68 100 100 100 91 82 100 100 100 100 98 100 100 100
100 100 100 100 100 100 99 84 19 94 100 14 87 94 100 93 99 100 100 100 100 100 100 93 99 100 100 100 100 100 100 100
100 91 100 100 100 100 100 65 42 25 100 100 83 100 41 100 95 100 100 100 100 100 100 92 95 100 100 100 100 95 100 100
100 100 100 89 100 100 100 100 100 100 100 100 100 100 96 84 100 100 100 100 100 100 100 49 100 100 100 100 100 100 100 100
100 100 100 100 100 100 100 99 100 100 100 100 82 99 100 91 30 100 100 100 100 98 81 97 97 100 100 100 100 100 100 100
100 100 100 100 100 100 100 100 100 100 100 100 100 96 100 100 100 100 95 90 73 100 98 100 100 99 100 100 100 100 100 100
100 100 100 100 100 100 100 73 100 100 100 100 100 100 100 100 100 100 100 84 58 82 100 100 100 100 100 100 100 100 100 100
100 100 100 100 100 100 100 83 96 100 100 100 100 92 100 100 100 100 99 100 100 87 84 100 90 94 100 100 100 100 100 100
100 100 100 100 100 100 100 63 64 99 100 100 100 98 100 100 100 100 100 73 25 99 40 100 100 100 100 100 100 100 100 100
100 100 100 100 100 95 100 57 100 99 100 79 100 100 100 100 100 100 100 100 75 100 83 100 100 100 100 100 100 100 100 100
100 100 100 100 100 100 100 70 100 100 100 100 50 100 100 100 100 100 100 100 100 100 97 100 100 94 100 100 100 100 100 100
100 100 100 100 100 100 100 100 100 100 100 100 100 100 100 100 100 100 100 100 99 100 73 99 100 100 100 100 100 100 100 100
100 100 100 100 100 100 100 100 100 100 100 100 100 100 100 100 100 100 100 100 100 100 100 100 100 100 100 100 100 100 100 100
100 100 100 100 100 100 100 100 100 100 100 100 100 100 100 100 100 100 100 100 100 100 100 96 94 98 100 100 100 100 100 100
100 100 100 100 100 100 86 99 100 100 100 100 100 100 100 100 100 100 100 100 100 100 100 100 100 100 100 100 100 100 100 100
36 29 99 100 100 100 97 53 98 100 100 100 100 94 100 100 100 100 100 100 100 100 100 100 100 100 100 100 100 100 100 100

GFSFLT1_prec_cloud_129.txt.gz
Cloud_Cover
5 90 100 5 57 100 100 100 100 8 6 81 100 81 100 100 96 76 100 14 1 10 3 55 61 46 56 80 100 100 100 100
56 25 99 100 40 94 100 98 42 5 5 39 100 72 8 97 55 83 92 96 2 5 0 51 100 57 44 39 96 100 100 100
100 100 14 100 100 100 100 100 28 4 4 28 99 100 97 100 96 22 100 63 94 23 26 84 81 86 98 100 83 100 100 100
100 100 100 91 100 100 100 100 100 100 34 4 3 68 63 50 100 100 69 100 23 100 52 18 50 100 100 100 100 91 100 100
100 100 100 98 100 100 100 100 100 100 100 100 60 21 38 55 99 100 100 100 26 89 100 100 99 100 100 100 100 100 100 100
100 100 100 100 99 100 100 100 100 100 100 100 100 100 36 23 98 100 100 100 100 55 100 100 100 100 100 100 88 100 66 100
100 100 100 100 100 100 100 100 100 100 100 100 100 100 55 90 100 100 100 100 100 100 100 100 100 100 100 100 100 100 90 98
100 100 100 100 100 100 100 100 100 100 100 100 100 100 100 100 100 100 100 100 100 100 100 100 100 100 100 100 99 63 96 100
100 100 100 100 100 100 100 100 100 100 100 100 100 100 100 100 100 100 100 100 100 100 100 100 100 98 79 100 100 100 100 100
100 100 100 100 100 100 100 100 100 100 100 62 100 100 100 100 100 100 100 100 100 100 100 100 100 100 100 100 100 100 100 100
100 100 100 100 100 100 100 100 100 100 100 100 100 100 100 100 100 100 100 100 100 100 47 95 100 100 100 100 100 100 100 100
100 99 100 100 100 100 100 100 100 100 100 100 100 100 100 98 100 100 100 100 100 100 100 50 99 100 100 100 100 100 100 100
100 100 100 100 100 100 100 100 100 100 100 100 100 100 100 100 100 100 100 100 100 100 100 100 78 100 100 89 100 100 100 100
100 100 100 100 100 100 100 100 99 100 96 46 95 100 96 100 100 98 100 100 100 100 100 68 24 100 100 100 100 100 100 100
100 100 99 19 73 100 100 100 100 100 100 98 97 100 79 72 100 99 100 100 100 100 100 100 44 72 99 100 100 100 100 100
49 75 100 100 100 97 100 100 100 100 100 100 94 59 57 68 100 100 100 100 100 100 100 100 100 65 97 100 100 100 100 100
5 6 100 100 100 100 100 100 100 100 100 100 100 100 73 100 100 100 100 100 100 100 100 100 100 100 100 100 100 100 100 100
100 100 98 100 100 100 100 100 100 100 100 100 100 100 100 100 100 100 100 100 100 100 100 100 100 100 100 100 100 100 100 100
100 59 12 54 100 100 100 100 100 100 100 100 100 100 100 100 100 100 100 100 100 100 100 100 100 100 100 100 100 100 100 100

GFSFLT1_prec_cloud_132.txt.gz
Cloud_Cover
100 100 100 44 5 4 2 74 100 100 100 100 100 100 100 100 93 95 83 68 34 5 10 98 100 99 98 99 88 96 100 100
100 100 100 100 32 5 5 16 100 100 100 100 100 100 100 100 45 98 46 99 78 23 100 100 100 92 95 100 51 67 100 96
100 100 100 100 99 91 100 44 7 95 100 100 100 100 91 64 54 9 84 26 36 47 97 93 98 80 100 89 80 100 79 95
100 100 100 41 100 95 100 100 69 74 100 100 100 100 99 80 51 13 5 8 53 21 47 99 100 90 94 97 100 100 99 99
95 98 49 100 99 100 100 100 100 100 100 100 100 100 100 100 91 59 5 90 99 45 44 46 78 83 100 63 100 100 100 99
43 99 100 92 100 100 100 100 100 100 100 100 96 100 100 100 100 100 100 78 40 100 67 80 100 100 97 84 98 100 100 88
60 100 100 100 100 100 100 100 100 100 100 90 53 100 100 100 100 100 100 81 100 98 92 66 90 100 100 99 100 100 100 100
4 99 100 100 93 100 100 100 100 100 100 100 91 86 95 100 100 100 100 100 100 100 100 100 100 100 100 100 100 100 100 64
0 38 100 100 100 100 100 100 100 100 100 100 99 100 100 100 100 100 100 99 100 100 88 100 100 100 100 100 100 100 100 83
7 5 26 100 100 100 100 100 100 100 100 100 100 100 89 100 100 100 100 95 100 100 100 100 100 100 100 100 100 100 100 100
96 59 9 100 100 100 100 100 100 100 100 100 100 100 100 100 100 100 96 99 86 100 100 100 100 100 100 100 100 100 100 100
100 100 93 100 100 100 100 100 100 100 100 100 100 100 100 100 99 72 90 96 100 100 100 100 100 100 100 100 100 100 100 100
100 100 100 100 100 100 100 100 100 100 100 100 100 100 100 100 100 59 91 100 100 100 100 100 100 96 100 100 100 100 100 100
100 100 100 100 100 100 100 100 100 77 100 100 100 100 88 92 100 43 100 100 100 100 100 100 100 100 97 87 100 100 100 100
100 100 100 100 85 100 100 100 100 100 100 100 100 100 100 100 84 79 98 100 100 100 92 100 100 100 19 82 100 100 97 100
100 100 100 100 100 100 100 100 100 100 100 100 100 100 100 100 100 100 96 58 100 100 100 100 100 100 99 59 100 100 100 100
100 100 100 100 100 74 5 28 100 100 100 100 100 100 100 100 100 100 92 100 100 100 100 100 100 100 100 100 100 100 100 100
100 100 100 100 91 100 100 100 91 73 100 100 100 100 100 98 73 54 92 78 100 100 100 100 100 100 100 100 100 100 100 100
98 57 100 100 99 46 100 100 100 99 100 100 100 100 100 100 87 100 100 87 100 100 100 100 100 100 100 100 100 100 100 100

GFSFLT1_prec_cloud_135.txt.gz
Cloud_Cover
27 100 100 23 16 5 5 5 6 98 100 98 100 96 76 74 100 100 100 100 100 100 100 89 85 99 100 100 100 86 41 75
0 1 29 5 85 99 8 93 86 44 98 100 100 100 100 100 100 100 100 100 100 100 100 78 83 100 100 100 100 100 61 74
0 0 0 0 1 5 13 100 100 100 100 99 85 100 100 100 100 100 100 100 100 100 100 100 100 100 100 100 100 99 99 52
0 0 0 0 1 12 4 97 100 100 100 68 100 100 100 98 100 100 100 100 100 100 100 100 100 100 100 100 100 100 100 80
0 0 0 0 9 72 99 96 100 100 100 100 100 100 100 100 100 100 100 100 100 100 100 100 100 100 100 100 85 94 99 100
0 0 0 5 5 91 100 100 100 100 100 100 100 100 100 100 100 96 83 48 46 99 100 100 100 100 100 100 100 100 50 98
0 0 0 1 30 15 86 100 100 100 100 100 100 100 100 100 100 100 69 94 96 100 100 100 100 100 100 100 91 100 97 76
0 0 3 1 34 93 100 100 100 100 100 100 100 100 98 100 100 100 100 100 100 98 100 100 100 100 98 100 100 100 100 98
0 0 0 5 6 99 100 100 100 100 100 100 100 100 100 100 100 100 100 100 51 100 100 100 100 100 100 100 100 100 100 100
2 0 1 5 7 96 100 100 100 100 100 100 100 100 100 100 100 100 100 100 100 100 66 79 100 98 100 100 100 100 100 100
82 52 98 97 100 100 100 100 100 100 100 100 99 100 100 100 100 100 100 100 100 100 100 100 100 100 100 100 100 100 100 100
100 100 100 100 100 70 97 100 100 100 100 100 100 100 100 100 100 100 100 100 100 100 100 97 95 100 100 100 100 100 100 100
100 100 100 100 95 91 100 100 100 100 100 100 100 100 100 100 100 100 100 100 95 97 97 99 100 100 100 100 100 100 100 100
100 100 100 100 100 100 100 100 100 100 100 100 100 100 100 100 100 100 100 100 98 86 54 100 100 100 100 100 100 100 100 100
100 100 100 100 100 100 100 100 100 100 100 100 97 96 100 98 95 81 100 80 73 100 98 94 100 100 100 100 100 100 100 100
100 100 100 100 100 100 100 69 100 100 100 100 100 100 100 100 100 100 100 56 74 100 100 100 100 100 100 100 100 100 100 100
100 100 100 100 98 89 45 63 74 100 100 96 100 100 100 100 100 100 100 94 96 25 95 100 100 100 100 100 100 100 96 100
100 100 100 100 100 100 100 100 99 92 100 100 100 100 100 100 100 100 100 100 100 100 100 88 100 100 100 100 100 100 95 100
100 100 100 100 100 100 100 100 100 97 100 100 100 100 100 100 100 100 100 100 100 100 100 100 100 100 100 100 100 100 100 100

GFSFLT1_prec_cloud_138.txt.gz
Cloud_Cover
5 4 0 0 0 4 5 36 100 100 98 73 92 100 100 100 100 100 100 100 100 100 100 100 100 100 100 100 100 99 100 100
1 0 0 0 0 5 5 68 100 100 92 98 100 100 100 100 100 100 100 100 86 100 100 100 100 100 100 100 100 100 100 100
0 0 0 0 0 0 2 40 100 97 100 100 100 100 100 100 100 100 100 100 100 100 98 100 100 100 100 100 100 100 100 100
0 0 0 0 0 0 0 0 0 63 79 100 91 100 100 100 100 100 100 100 100 100 100 100 100 100 100 100 100 100 100 100
0 0 0 0 0 0 0 15 48 95 100 100 88 100 100 58 100 100 100 100 100 100 100 100 100 100 100 100 100 100 97 99
0 0 0 0 0 0 0 41 100 100 100 73 82 100 90 100 98 100 100 100 100 100 100 100 100 100 100 100 100 100 100 89
0 0 0 0 0 0 0 0 2 100 100 93 27 100 100 100 100 100 100 100 100 100 100 100 100 100 100 100 100 100 100 57
0 0 0 0 0 0 0 0 32 100 84 100 100 99 99 100 97 89 100 100 100 100 100 100 100 100 100 100 100 100 100 100
98 29 0 0 15 63 61 20 14 8 62 100 100 100 94 100 100 100 39 100 100 100 100 100 100 100 100 100 100 100 100 100
100 93 30 20 72 66 59 72 100 83 100 100 100 100 100 100 100 100 99 91 100 100 100 99 100 100 100 100 100 100 100 100
100 100 95 77 15 4 5 19 92 71 39 60 100 100 100 100 100 100 79 96 100 100 100 99 100 100 100 100 100 100 100 100
100 100 100 100 89 45 82 78 96 100 100 100 100 99 100 100 100 100 100 99 100 100 100 100 100 100 100 100 100 100 100 100
100 100 100 100 100 100 100 100 100 100 100 100 100 100 100 100 100 100 100 100 100 100 100 100 100 100 100 100 100 100 100 100
100 100 100 100 100 100 100 100 100 100 100 100 100 100 100 100 100 100 100 100 100 100 100 100 100 100 100 100 100 100 100 100
100 100 100 100 100 100 100 100 100 100 96 47 69 100 100 100 100 100 100 100 100 100 100 100 100 100 99 100 100 100 100 100
100 100 100 100 100 100 100 100 100 100 94 98 96 100 100 100 100 100 100 100 100 100 100 100 100 100 100 100 100 100 100 100
100 100 100 100 100 100 71 71 100 100 100 99 100 100 100 100 100 100 100 100 100 100 100 100 100 100 100 100 100 100 100 100
100 100 100 100 100 100 100 100 100 100 100 100 100 100 100 100 100 100 100 100 100 100 100 100 100 100 100 100 100 100 100 100
100 100 100 100 100 100 100 100 100 100 100 100 100 100 100 100 100 100 100 100 100 100 100 100 100 100 100 100 100 100 100 100

GFSFLT1_prec_cloud_141.txt.gz
Cloud_Cover
53 18 10 2 1 0 0 4 5 5 5 12 37 31 19 97 98 72 100 100 100 98 98 73 87 100 90 96 88 93 96 100
100 100 94 35 5 0 0 0 4 5 14 45 100 97 35 23 6 90 100 94 100 100 100 100 98 100 100 100 100 87 100 100
70 74 10 0 1 0 0 0 0 2 46 90 100 90 76 93 98 100 99 100 100 100 100 100 100 100 100 100 100 100 100 92
92 39 5 5 0 0 0 0 0 0 0 5 54 80 100 100 97 94 99 100 100 100 100 100 100 100 100 100 100 100 100 100
5 5 18 5 1 0 0 0 0 0 0 19 34 72 100 100 100 100 94 56 55 100 100 100 100 100 100 100 100 100 100 100
19 3 21 5 0 0 0 1 0 0 0 0 33 100 100 100 100 100 100 100 73 82 100 100 100 100 100 100 100 100 100 100
50 62 88 1 0 0 49 100 93 100 88 90 100 100 44 11 100 57 100 100 100 61 75 100 100 100 100 100 100 100 100 100
100 89 63 16 26 78 99 100 100 100 100 100 100 100 88 67 98 90 100 100 100 100 100 100 100 100 100 100 100 100 100 100
100 94 100 100 100 100 100 100 100 100 100 66 80 100 100 100 100 100 100 100 100 100 100 100 100 100 100 100 100 100 100 100
100 100 100 100 100 100 100 100 100 98 21 60 66 100 100 83 82 100 100 100 100 100 92 100 100 100 100 100 100 100 100 100
100 100 100 100 100 100 100 100 90 98 89 70 100 100 100 19 96 100 100 100 91 100 100 100 100 100 100 100 100 100 100 100
100 100 100 100 100 100 100 97 100 100 100 100 99 100 100 56 95 100 100 92 9 6 59 100 100 100 100 100 100 100 100 100
100 100 100 100 100 100 100 97 100 100 100 100 100 100 100 99 100 100 100 15 74 96 41 52 100 100 100 100 100 100 100 100
100 100 100 100 100 100 100 100 100 32 90 89 97 100 100 94 100 100 100 82 100 100 99 85 43 100 100 100 100 100 100 100
100 100 100 100 100 100 100 100 100 97 100 94 100 100 100 99 100 100 100 100 100 100 100 98 100 100 100 100 100 100 100 100
100 100 100 100 100 100 100 100 100 100 100 100 100 100 100 100 99 100 100 100 100 100 100 98 86 100 100 100 100 100 100 100
100 100 100 100 100 100 100 100 100 100 100 100 100 100 100 100 100 100 100 100 100 100 100 100 100 100 100 100 100 100 100 100
100 100 100 100 100 100 100 100 100 100 100 100 100 100 100 100 100 100 100 100 100 100 100 100 100 100 100 100 100 100 100 100
100 100 100 100 100 100 100 100 100 100 100 100 100 100 100 100 100 100 100 100 100 100 100 100 100 100 100 100 100 100 100 100

GFSFLT1_prec_cloud_144.txt.gz
Cloud_Cover
7 5 11 5 5 5 3 3 5 5 10 32 5 17 52 92 33 5 5 100 100 100 95 100 100 100 100 100 100 100 100 100
0 0 0 1 5 73 100 100 100 100 95 6 6 5 5 38 26 5 5 76 99 44 99 90 84 100 100 100 100 100 100 100
6 2 0 0 5 5 5 34 92 7 5 5 5 5 5 5 5 9 8 60 100 69 43 100 100 100 100 100 100 100 100 100
28 25 78 13 54 69 18 5 20 28 5 2 0 3 5 4 6 80 34 45 99 90 24 100 96 100 100 100 100 100 100 100
2 80 37 6 58 4 6 16 5 7 4 0 0 0 0 0 11 33 76 98 100 60 97 86 99 100 100 100 100 100 100 100
19 67 98 100 100 100 100 100 100 100 79 34 6 5 0 16 31 42 100 100 100 100 100 98 100 100 100 100 100 100 100 100
100 70 100 100 100 100 100 100 100 100 99 25 3 0 57 100 64 43 75 100 100 100 98 100 100 100 100 100 100 100 100 100
100 100 96 92 89 100 100 100 100 100 100 100 56 84 47 43 10 29 100 100 98 100 45 100 100 99 98 100 100 100 100 100
100 100 100 100 100 100 100 100 100 100 100 100 100 100 95 100 100 98 100 89 69 89 100 100 100 100 86 79 100 100 100 100
100 100 100 93 100 100 100 100 100 100 100 100 100 100 100 100 100 100 100 95 97 100 100 100 100 100 100 100 100 100 100 100
96 94 100 100 100 100 100 100 100 100 100 100 100 100 100 100 100 100 100 100 100 100 100 100 100 100 100 100 100 100 100 100
100 100 97 100 100 100 100 100 100 100 100 100 100 100 99 100 100 100 100 98 98 100 100 100 100 96 100 100 100 100 100 100
100 100 100 98 100 100 100 100 100 100 100 100 100 100 100 100 100 100 100 100 100 100 100 100 93 100 91 98 100 100 100 100
100 86 99 100 100 100 100 100 100 100 100 100 100 100 100 100 100 100 99 35 28 5 66 100 24 37 83 100 95 100 100 100
100 100 100 100 100 100 100 100 100 100 100 100 100 100 100 100 100 100 73 54 18 95 100 100 7 11 40 79 95 78 100 100
100 100 100 100 100 100 100 100 100 100 100 100 100 100 100 100 100 100 100 66 100 98 100 73 5 5 12 98 100 93 74 99
100 100 100 100 100 100 100 100 100 100 100 100 100 100 100 100 100 100 100 100 99 98 100 99 38 51 100 100 100 100 100 92
100 100 100 100 100 100 100 100 100 100 100 100 100 100 100 100 100 100 100 100 82 88 100 88 77 92 100 100 100 100 100 87
100 100 100 100 100 100 100 100 100 100 100 100 100 100 100 100 100 100 100 78 94 100 100 91 55 99 100 100 100 100 100 100